GFSCGP_prec_cloud_060.txt.gz
Cloud_Cover
75 100 100 100 100 100 100 100 100 87 59 70 97 100 5 5 5 5 5 5 5 45 51 63 100 28 21 27 32 11 36 8 5 5 5 5 5 0 0 0 0 0 0 0
22 100 100 100 100 100 100 100 100 100 75 100 100 100 100 90 76 67 10 16 6 5 60 100 99 25 5 5 25 13 5 5 5 5 5 5 0 0 0 0 0 0 0 0
5 100 100 100 100 100 100 100 100 100 100 100 100 100 100 66 20 62 62 50 44 97 85 27 5 5 5 12 5 5 5 5 5 5 5 0 0 0 0 0 0 0 0 0
5 89 100 100 100 100 100 100 100 100 100 100 100 100 100 100 100 100 100 100 100 100 94 92 95 11 66 62 70 38 5 5 5 5 4 0 0 0 0 0 0 0 0 0
5 14 100 100 100 100 100 100 100 100 99 100 100 100 100 100 100 100 100 100 100 100 86 10 55 100 100 100 81 24 10 5 5 0 0 0 0 0 0 0 0 0 1 0
56 67 81 99 100 100 100 100 100 100 100 98 100 100 100 100 100 100 100 100 100 100 100 98 100 100 100 96 8 5 5 0 0 0 0 0 0 0 0 1 3 5 5 0
22 51 48 83 97 100 98 100 100 100 100 100 100 100 100 100 100 100 100 100 100 100 100 100 100 100 80 5 5 5 0 0 0 0 0 0 2 4 5 5 5 4 0 0
5 13 35 13 13 62 69 100 80 87 100 100 100 100 100 100 100 100 100 100 100 100 100 100 82 8 5 5 2 0 0 0 0 4 5 5 5 0 0 0 0 0 0 0
0 0 0 5 5 7 50 46 22 5 42 100 100 100 99 100 100 100 100 100 100 99 79 5 5 5 4 0 0 0 0 4 3 0 0 0 0 0 0 0 0 0 0 0
0 0 0 0 3 5 5 5 5 5 5 5 50 48 69 92 92 97 88 84 34 6 4 4 2 0 0 0 0 4 2 0 0 0 0 0 0 0 0 0 0 0 0 0
0 0 0 0 0 1 3 5 5 3 1 0 5 5 5 2 1 1 1 1 0 0 0 0 0 0 1 5 5 0 0 0 0 0 0 0 0 0 0 0 0 0 0 0
0 0 0 0 0 0 0 0 0 0 0 0 0 0 0 0 0 0 0 0 0 0 0 0 2 5 5 4 0 0 0 0 0 0 0 0 0 0 0 0 0 0 0 0
0 0 0 0 0 0 0 0 0 0 0 0 0 0 0 0 0 0 0 0 0 0 0 4 5 5 0 0 0 0 0 0 0 0 0 0 0 0 0 0 0 0 0 0
1 0 0 0 0 0 0 0 0 0 0 0 0 0 0 0 0 0 0 0 0 0 5 1 0 3 5 5 5 5 4 0 0 0 0 0 0 0 0 0 0 0 0 2
0 0 0 0 0 0 0 0 0 0 0 0 0 3 3 0 0 0 0 0 0 0 2 4 5 5 5 5 3 5 0 0 1 4 5 5 5 5 2 0 0 0 0 5
0 0 0 0 0 0 0 0 0 0 2 5 0 2 3 0 0 0 0 5 5 5 5 5 5 5 5 5 5 5 5 5 5 5 5 4 0 0 0 0 0 5 5 5
0 0 0 0 1 1 5 5 5 5 4 0 0 0 0 3 5 5 5 5 5 5 5 5 5 5 5 5 5 5 5 5 2 1 0 0 0 0 0 0 5 5 5 6
5 5 5 5 5 5 4 1 0 0 3 31 17 8 5 5 5 5 5 5 5 5 5 5 5 5 5 5 5 5 5 2 0 0 0 0 0 0 1 5 5 17 23 99
0 1 4 4 5 3 5 5 25 72 97 39 20 5 5 5 12 6 5 5 6 19 5 5 5 5 5 4 1 4 5 0 0 0 0 0 0 1 5 5 78 100 82 100
79 34 5 5 5 5 6 59 99 94 68 44 5 5 5 5 5 35 100 100 100 100 78 16 5 5 3 0 4 3 0 0 0 0 0 0 0 5 37 99 100 100 100 100
41 34 75 45 19 49 94 88 58 9 5 5 5 5 5 13 91 100 87 68 11 3 0 0 0 0 1 4 4 0 0 0 0 0 0 0 5 8 100 100 100 100 100 100
16 19 36 5 5 8 21 5 5 5 4 1 0 0 0 0 0 0 0 0 0 0 0 0 0 3 5 4 0 0 3 0 0 0 2 5 5 5 100 100 100 100 100 100
0 0 5 2 0 0 0 0 0 0 0 0 0 0 0 0 0 0 0 0 0 0 0 0 2 4 5 3 5 5 4 0 0 1 5 5 16 88 100 100 100 100 100 100
0 0 0 0 0 0 0 0 0 0 0 0 0 0 0 0 2 0 0 0 0 0 0 0 1 0 5 5 5 5 5 5 5 5 5 30 100 100 100 100 100 100 100 100
0 0 0 0 0 0 0 0 0 0 0 0 1 21 36 34 17 5 4 5 5 3 0 0 0 1 5 5 5 5 5 5 5 5 39 100 100 100 100 100 100 100 100 100
0 0 0 0 0 0 0 0 0 0 0 4 56 100 100 84 18 5 7 5 1 0 0 0 0 0 5 5 5 5 8 38 5 19 93 100 100 99 100 100 100 100 100 100

GFSCGP_prec_cloud_063.txt.gz
Cloud_Cover
0 3 72 98 100 100 100 100 100 99 54 100 100 100 8 7 28 5 5 73 44 7 79 36 5 5 5 58 42 39 23 7 5 5 5 5 5 5 5 5 5 0 0 0
5 0 5 91 100 100 100 100 99 94 84 49 99 100 100 21 50 75 62 94 93 85 52 5 8 7 5 5 16 66 14 5 5 5 5 6 12 5 5 5 0 0 0 0
4 91 10 18 90 81 100 100 100 100 75 77 96 100 100 39 5 5 5 5 21 85 60 10 6 5 5 6 11 30 22 41 6 8 72 89 5 5 5 0 0 0 0 0
3 5 5 5 21 84 100 100 100 100 100 100 100 98 100 75 41 26 17 34 65 98 61 10 5 5 12 59 99 100 66 62 93 100 100 69 6 2 0 0 0 0 0 0
4 5 5 8 19 53 100 100 100 100 100 100 100 66 100 100 98 100 95 71 59 85 100 100 100 100 100 100 100 100 100 100 100 100 91 5 0 0 0 0 0 0 0 0
5 53 49 93 72 6 59 73 100 100 100 100 100 100 100 100 100 100 100 100 100 100 100 100 100 100 100 100 100 100 100 100 100 67 4 0 0 0 0 0 0 1 4 5
5 48 77 5 5 5 10 83 99 100 100 100 100 100 100 100 100 91 78 100 100 100 100 100 100 99 100 100 100 100 99 52 4 0 0 0 0 0 0 3 5 5 2 1
5 1 0 0 0 4 5 22 39 81 100 100 100 100 100 100 100 100 100 100 100 100 100 100 100 100 100 100 44 7 5 0 0 0 0 0 0 5 3 4 4 0 0 0
4 0 0 0 0 5 5 5 5 57 99 100 100 44 20 59 95 77 62 50 52 72 74 72 82 65 20 5 1 0 0 0 0 0 0 5 0 1 0 0 0 0 0 0
0 0 0 0 0 4 5 5 5 5 10 27 67 75 42 60 22 5 5 5 4 4 4 2 0 0 0 0 0 0 0 0 2 5 4 1 0 0 0 1 2 0 0 0
0 0 0 0 0 0 1 0 0 0 0 2 6 5 5 1 0 0 0 0 0 0 0 0 0 0 0 0 0 1 5 5 2 0 0 2 4 5 5 4 0 0 0 0
5 5 0 0 0 0 0 0 0 0 0 0 0 0 0 0 0 0 0 0 0 0 0 0 0 0 1 5 5 5 5 5 5 5 5 5 5 3 0 0 0 0 0 0
3 0 0 0 0 0 0 0 0 1 0 0 0 0 0 0 0 0 0 0 0 0 4 5 5 5 5 5 5 5 5 5 5 5 5 5 2 0 0 0 0 0 0 0
0 0 0 0 3 3 2 0 0 0 0 0 0 0 0 0 0 0 0 2 5 5 5 5 2 3 5 5 5 5 5 5 4 1 4 5 4 1 0 0 0 0 0 2
0 0 3 4 0 0 0 0 0 0 0 0 0 0 0 4 4 5 5 5 2 3 4 5 5 5 5 5 5 5 5 5 5 5 5 5 3 2 0 0 0 0 5 5
5 3 0 1 3 5 5 0 0 0 0 0 5 5 5 5 5 5 5 21 13 5 5 5 5 5 5 5 5 5 5 5 5 5 5 3 0 0 0 0 0 5 5 5
5 5 5 5 0 0 0 2 4 5 5 5 5 5 6 21 70 97 92 58 46 5 5 5 5 5 5 5 5 5 9 4 2 0 0 0 0 0 0 4 5 5 6 14
0 0 0 4 5 5 5 5 5 5 52 65 80 100 100 86 62 34 29 10 5 5 5 5 5 5 4 4 2 0 0 4 3 0 0 0 0 0 2 5 5 23 98 100
5 5 5 5 5 28 89 86 100 100 100 99 68 28 6 5 9 5 5 5 2 1 0 0 0 0 0 0 0 3 5 5 0 0 0 0 0 0 5 5 7 100 100 100
5 7 13 5 10 66 95 57 55 81 60 16 5 4 3 0 0 0 0 0 0 0 0 0 0 0 0 0 5 5 1 0 0 0 0 0 0 5 5 5 74 100 100 100
5 7 19 22 4 2 0 0 0 1 3 0 0 0 0 0 0 0 0 0 1 2 3 10 32 22 5 5 5 0 0 1 3 5 5 5 5 5 35 61 100 99 100 100
0 1 1 3 0 0 0 0 0 0 0 0 0 0 0 0 0 0 0 5 19 98 99 43 17 5 5 2 0 0 0 3 5 5 5 5 5 8 99 100 100 100 100 100
0 0 0 0 0 0 0 0 0 0 0 0 0 0 0 0 0 0 4 5 5 5 6 28 10 1 0 0 0 0 4 5 5 5 5 5 5 56 100 100 100 98 100 100
0 0 0 0 0 0 0 0 0 0 0 0 0 0 0 0 0 0 5 57 100 71 8 2 0 0 0 0 2 5 5 5 5 5 5 5 40 100 100 100 100 100 100 100
0 0 0 0 0 0 0 0 0 0 0 0 0 0 0 0 0 2 96 51 10 5 2 0 0 0 0 5 5 5 5 5 5 5 5 5 98 100 100 100 100 100 100 100
2 0 0 0 0 0 0 0 0 0 0 0 0 0 1 0 0 5 92 58 5 0 0 0 0 4 5 5 6 57 26 67 6 5 5 9 100 100 100 100 100 100 100 100

GFSCGP_prec_cloud_066.txt.gz
Cloud_Cover
0 3 0 0 5 65 100 100 100 100 100 74 99 100 100 100 100 100 100 100 100 100 100 90 70 61 81 58 51 32 86 100 100 100 100 82 22 33 84 100 97 78 100 37
0 2 0 0 1 5 82 100 100 100 100 100 100 100 84 15 76 94 82 83 96 83 23 5 5 5 5 7 81 81 87 89 61 12 5 16 83 98 100 100 100 89 16 52
5 2 0 0 23 5 65 100 100 100 100 100 100 100 91 6 5 5 5 20 71 32 14 23 53 47 10 5 5 10 9 26 48 70 99 100 100 100 97 35 9 82 53 3
97 80 1 0 8 58 100 32 83 100 100 100 100 100 100 33 62 6 5 5 5 6 60 33 70 37 5 5 8 45 98 100 100 100 100 100 92 22 18 92 38 2 0 0
5 90 100 100 91 84 11 5 5 63 100 100 100 100 100 100 100 78 18 23 6 35 34 64 8 7 5 23 53 74 92 97 97 93 58 41 67 84 5 4 0 0 0 0
3 6 100 100 100 55 6 5 4 5 34 100 100 100 100 100 100 100 99 89 97 100 100 100 60 88 97 100 100 100 99 100 100 95 62 10 3 0 0 0 0 0 0 0
24 5 19 78 100 31 5 5 2 5 6 42 100 100 100 100 100 100 100 100 100 100 100 100 100 100 100 100 91 65 33 9 5 5 2 0 0 0 0 0 0 3 5 5
4 10 5 5 5 4 0 0 0 5 5 5 13 86 99 100 100 100 100 99 100 100 99 100 88 59 23 16 6 5 1 0 0 0 0 0 0 0 2 5 5 5 4 0
64 5 5 5 0 0 0 0 0 0 5 5 5 5 28 19 45 54 73 92 100 98 63 6 5 5 5 1 0 0 0 0 0 0 0 0 5 5 5 4 1 5 5 0
68 100 7 5 0 0 0 0 0 0 0 1 3 5 5 5 5 21 64 86 46 9 5 4 1 0 0 0 0 0 0 0 1 5 5 5 5 3 2 5 5 5 5 2
100 92 29 5 5 3 0 0 0 0 0 0 0 1 5 5 5 8 9 3 1 0 0 0 0 0 0 0 0 1 7 5 5 5 5 5 5 5 5 5 2 0 0 0
9 5 0 0 0 0 0 0 0 0 0 2 0 5 5 5 3 0 0 0 0 0 0 0 0 0 1 5 24 9 5 13 18 41 88 78 12 5 5 0 0 0 0 0
5 5 5 1 0 0 0 0 2 4 4 4 1 0 0 0 0 0 0 0 0 0 0 1 5 11 8 5 30 66 81 80 74 56 7 5 5 5 5 1 1 0 0 0
55 8 5 4 3 0 0 0 0 0 0 0 0 0 0 0 0 0 0 0 2 5 5 5 5 5 5 7 32 5 5 6 12 6 5 5 5 5 5 1 0 0 0 0
46 23 5 5 5 0 0 0 0 0 0 0 0 0 0 0 0 0 5 5 5 5 5 5 5 5 5 5 5 17 5 5 5 5 5 5 1 0 0 0 0 0 0 0
24 5 5 5 0 0 0 1 2 0 5 5 0 2 5 5 5 5 5 5 5 5 5 5 5 5 5 5 5 5 5 1 0 0 0 0 0 0 0 0 0 0 1 5
5 5 5 4 2 5 5 2 5 5 5 5 5 5 5 6 8 15 11 7 5 5 4 0 0 0 0 0 0 0 0 0 1 4 4 2 0 0 0 0 0 1 5 16
5 5 5 5 5 5 5 5 5 5 5 12 34 61 20 5 4 1 0 0 0 0 0 0 0 0 0 0 8 86 80 100 100 99 62 5 1 0 0 0 2 5 15 96
5 5 5 5 9 5 5 23 37 14 8 5 5 2 0 0 0 0 0 0 0 0 0 0 0 0 4 86 100 100 100 100 100 39 5 1 0 0 0 5 5 12 91 100
27 44 64 100 92 54 17 5 5 1 0 0 0 0 0 0 0 0 0 0 0 0 0 0 0 6 100 100 100 99 37 5 1 0 0 0 0 0 4 5 11 100 100 100
5 9 30 4 2 0 0 0 0 0 0 0 0 0 0 0 0 0 0 3 0 0 0 0 16 99 100 95 16 5 5 4 0 0 1 5 5 1 5 11 99 100 100 100
0 0 0 0 0 0 0 0 0 0 0 0 0 0 0 0 0 0 0 0 0 0 0 7 100 100 99 97 78 25 1 0 0 4 5 5 5 3 5 84 100 100 100 100
0 0 0 0 0 0 0 0 0 0 0 0 0 0 0 0 0 0 0 0 3 0 3 57 96 100 100 20 0 0 5 0 5 5 5 5 5 5 59 100 100 100 100 100
0 0 0 0 0 0 0 0 0 0 0 0 0 0 0 0 0 0 0 0 0 0 11 96 71 14 3 3 4 5 5 5 5 5 63 72 5 27 100 100 100 100 100 100
0 0 0 0 0 0 0 0 0 0 0 0 0 0 0 0 0 0 0 0 0 5 61 62 75 2 0 0 5 5 5 5 5 67 97 55 5 92 100 100 100 100 100 100
0 0 2 0 0 0 0 0 0 0 1 4 0 0 0 5 0 0 0 0 4 5 7 1 0 0 0 0 0 4 5 5 5 82 100 42 87 100 100 100 100 100 100 100

GFSCGP_prec_cloud_069.txt.gz
Cloud_Cover
0 0 0 0 0 14 100 99 86 100 100 100 100 100 100 100 100 100 100 100 100 100 100 100 100 100 100 100 100 100 57 12 68 72 46 48 99 100 100 100 100 100 100 100
0 0 2 2 24 3 5 26 74 82 100 100 100 100 100 100 80 58 94 89 91 100 100 100 88 91 90 90 82 94 90 100 100 100 100 100 100 100 100 100 100 100 100 100
0 2 2 15 1 0 0 20 69 43 99 100 100 100 100 100 76 70 100 100 99 100 100 95 96 85 90 95 80 22 61 100 100 100 92 8 16 47 38 26 12 42 44 72
4 10 0 0 0 0 7 21 96 83 90 100 100 100 100 100 75 100 100 100 100 100 100 66 64 89 78 76 18 28 100 100 100 64 11 39 88 88 95 99 100 58 19 4
0 0 0 0 0 4 41 10 77 93 90 69 100 100 100 100 100 100 98 100 100 100 100 100 100 42 100 22 100 100 100 100 100 100 100 99 100 96 52 5 5 5 0 0
2 0 0 64 88 24 5 95 100 93 15 7 7 82 100 100 100 100 100 100 100 100 100 100 100 100 100 100 100 100 100 100 100 67 23 6 5 5 4 0 0 0 0 0
4 3 81 100 100 100 99 98 88 66 5 2 5 12 5 60 86 100 100 100 100 100 100 100 100 100 100 100 100 100 100 55 8 5 0 0 0 0 0 0 0 0 0 0
95 15 7 100 100 100 100 100 100 11 1 2 5 5 5 5 5 5 47 97 100 100 100 100 82 100 100 100 94 27 5 5 4 0 0 0 0 0 0 0 0 2 4 4
100 48 5 100 100 100 100 100 100 73 3 0 0 4 4 5 5 5 5 5 22 14 5 5 5 5 5 5 5 1 0 0 0 0 0 0 0 0 5 5 5 5 4 5
82 56 16 5 98 100 100 100 90 29 1 0 0 0 0 0 0 2 3 1 2 4 5 5 4 0 0 0 0 0 0 0 0 0 1 4 6 10 9 5 5 5 5 5
5 5 0 5 6 5 15 30 4 0 0 0 0 0 0 0 0 0 0 0 0 5 2 0 0 0 0 0 0 1 3 32 56 94 100 100 100 88 61 25 5 5 5 5
72 54 100 96 53 48 23 5 5 5 2 4 0 0 0 0 0 0 2 0 0 4 0 0 0 0 0 4 9 96 100 100 100 100 100 100 94 60 48 52 8 5 5 5
100 99 100 100 100 100 100 96 68 20 5 5 4 0 0 0 0 0 0 0 0 0 0 0 2 5 5 5 22 34 38 27 13 5 5 5 4 5 4 4 0 0 0 0
100 100 100 87 69 18 8 5 5 5 5 0 1 0 0 0 0 0 0 0 0 0 5 5 5 4 5 5 5 5 4 3 0 0 0 0 0 0 0 0 0 0 2 4
89 84 59 62 70 61 35 8 5 5 5 5 1 5 0 0 0 0 0 0 0 0 0 3 3 3 1 0 0 0 0 0 0 0 0 0 9 26 52 74 86 91 90 85
100 100 100 100 50 25 47 5 5 5 5 5 2 5 0 0 0 0 0 0 0 0 0 0 0 0 0 0 0 0 0 0 0 25 100 100 100 100 100 99 39 5 1 0
100 100 97 95 50 70 70 5 5 5 5 4 3 5 5 2 4 5 2 0 0 0 0 0 0 0 0 0 0 0 0 5 69 100 100 100 100 61 5 3 0 0 0 5
100 100 100 91 28 84 54 23 5 5 5 5 5 5 5 1 0 0 0 0 0 0 0 0 0 0 0 0 0 0 0 12 100 100 100 99 42 5 2 0 0 3 5 5
98 84 92 63 16 6 5 5 5 5 5 5 5 2 0 0 0 0 0 0 0 0 0 0 0 0 0 0 0 0 7 89 100 98 42 5 5 2 0 0 5 5 5 78
16 6 17 34 5 5 5 5 5 5 4 0 0 0 0 0 0 0 0 0 0 0 0 0 0 0 0 0 0 5 82 100 82 5 4 0 0 3 5 5 5 61 90 100
42 94 49 25 8 4 2 0 0 0 0 0 0 0 0 0 0 0 0 0 0 0 0 0 0 0 0 0 5 36 67 6 5 0 2 5 5 5 5 5 31 77 100 100
0 0 0 0 0 0 0 0 0 0 0 0 0 0 0 0 0 0 0 0 0 0 0 0 0 2 0 4 5 10 5 5 3 4 5 5 5 5 5 9 51 100 100 100
0 0 0 0 0 0 0 0 0 0 0 0 0 0 0 0 0 0 0 0 0 0 5 5 5 0 3 5 5 5 5 5 1 5 5 5 5 76 9 8 73 100 100 100
0 0 0 0 0 0 0 0 0 0 0 0 0 0 0 0 0 0 0 0 0 2 5 8 3 3 5 5 5 5 5 5 5 5 5 5 68 65 9 91 100 100 100 100
0 0 0 0 0 0 0 0 0 0 0 0 0 0 0 0 0 0 0 0 0 5 5 5 5 5 5 5 5 5 5 5 5 5 5 5 58 11 56 100 100 100 100 100
0 0 0 0 0 0 0 0 0 0 0 0 0 2 6 5 4 0 0 4 5 5 1 4 5 5 4 5 5 5 5 5 5 5 5 51 20 67 100 100 100 100 100 100

GFSCGP_prec_cloud_072.txt.gz
Cloud_Cover
0 6 0 0 0 0 5 49 59 100 100 100 100 97 100 100 100 100 96 100 100 100 100 100 100 100 100 100 98 100 56 28 84 72 97 100 100 100 100 100 100 100 100 96
0 0 0 0 0 0 7 79 36 29 93 100 100 100 100 100 100 100 97 100 100 89 98 100 100 100 100 100 100 100 100 100 100 100 100 99 86 100 100 100 100 100 100 100
4 4 1 4 83 41 5 75 71 15 6 78 97 100 100 100 100 100 100 100 100 100 22 40 100 100 100 100 100 100 100 100 100 95 74 63 100 100 100 100 100 100 100 94
84 16 0 81 28 1 7 0 1 15 4 5 5 23 100 100 100 100 100 100 100 100 100 95 99 100 100 100 100 100 100 100 100 100 100 100 100 100 100 100 100 100 99 42
11 32 3 0 11 0 2 5 2 2 5 5 3 8 99 67 100 100 100 99 100 100 100 100 100 100 100 100 100 100 100 100 100 100 100 100 100 100 95 32 7 53 8 0
36 11 60 1 0 0 2 33 5 5 17 4 84 12 26 44 60 100 100 85 100 100 100 100 100 100 100 100 100 100 100 100 100 100 100 100 72 38 15 4 0 0 0 0
40 1 0 35 92 2 0 25 5 5 4 4 4 32 0 30 18 3 30 85 100 100 100 100 100 100 100 95 89 100 100 100 100 100 39 2 1 0 0 0 0 0 0 0
77 4 3 0 1 49 97 60 53 5 33 7 22 75 99 33 5 0 0 5 11 11 8 6 5 6 5 5 5 5 6 5 3 0 0 0 0 0 0 0 1 2 4 4
100 42 32 48 74 5 17 94 100 97 100 58 97 100 98 11 0 0 0 0 4 5 5 12 5 5 4 3 0 0 0 0 0 0 0 0 2 2 5 5 5 5 5 5
100 100 42 7 66 100 92 96 100 100 100 97 99 40 4 31 2 0 0 0 0 0 0 0 0 0 0 0 0 0 0 0 0 0 2 2 5 4 4 4 4 5 3 2
100 100 100 84 17 95 100 100 100 100 100 100 100 100 100 95 78 5 0 0 0 0 0 0 0 0 0 0 0 0 0 0 0 0 0 0 0 0 0 0 0 0 0 0
100 100 100 98 4 2 100 100 100 100 100 100 100 100 25 1 0 0 0 0 0 0 0 0 0 0 0 0 0 0 0 0 0 0 0 0 0 0 0 0 0 0 0 0
81 49 33 5 0 4 4 4 12 85 67 81 26 4 5 5 5 0 0 0 0 0 0 0 0 0 0 0 0 0 0 0 0 0 0 0 0 0 0 0 5 39 72 98
9 64 60 85 100 65 59 90 91 91 96 95 62 5 5 5 4 3 4 5 5 5 2 0 0 0 0 0 0 0 0 0 0 0 0 0 0 0 0 2 5 89 100 100
100 97 100 100 100 100 100 100 99 88 23 16 5 5 5 6 96 80 7 4 3 5 5 4 0 0 0 0 0 0 0 0 0 0 0 0 0 0 1 5 100 100 100 100
100 100 100 100 99 35 16 26 42 53 64 90 100 74 40 6 5 5 5 5 5 5 5 4 0 0 0 0 0 0 0 0 0 0 0 0 0 6 98 100 100 100 65 5
100 100 94 96 100 100 100 87 99 100 100 86 90 87 80 48 56 19 5 5 5 1 0 0 0 0 0 0 0 0 0 0 0 0 0 5 5 20 47 60 22 3 0 0
100 100 100 100 99 100 100 100 100 96 100 100 100 100 91 92 28 5 5 2 0 0 0 0 0 0 0 0 0 0 0 0 0 0 3 4 5 3 1 0 0 0 0 2
100 100 100 100 100 100 98 93 97 100 88 96 100 43 8 5 2 0 0 0 0 0 0 0 0 0 0 0 0 0 0 0 0 0 0 0 0 0 0 0 2 5 5 5
100 100 98 78 39 44 64 49 66 84 97 92 22 2 0 0 0 0 0 0 0 0 0 0 0 0 0 0 0 0 0 0 0 0 0 0 0 0 0 0 5 5 5 7
65 16 13 14 40 84 90 80 69 10 1 0 0 0 0 0 0 0 0 0 0 0 0 0 0 0 0 2 4 4 1 0 5 0 0 0 0 1 5 4 5 5 5 49
5 22 35 31 11 1 0 0 0 0 0 0 0 0 0 0 0 0 0 0 0 0 0 0 0 2 5 5 1 5 5 5 5 0 0 1 2 5 5 5 5 5 5 81
0 0 0 0 0 0 0 0 0 0 0 0 0 0 0 0 0 0 0 0 0 4 4 0 2 5 5 4 0 0 4 5 5 0 5 5 5 5 5 5 18 75 83 99
0 0 0 0 0 0 0 0 0 0 0 0 1 5 3 0 0 0 5 4 35 100 4 4 0 4 5 5 5 5 5 5 5 5 5 5 5 5 5 6 81 100 100 100
0 0 0 0 0 0 0 0 0 0 0 0 3 5 5 2 2 10 99 100 98 12 0 4 1 1 5 4 0 3 5 5 5 5 5 5 5 5 29 100 100 100 100 100
0 0 0 0 0 0 0 0 0 2 0 5 73 93 20 4 16 100 100 100 70 1 0 0 4 4 1 0 5 5 5 5 5 5 5 5 5 16 100 100 100 100 100 100

GFSCGP_prec_cloud_075.txt.gz
Cloud_Cover
0 1 0 5 5 5 5 4 5 5 5 62 100 100 100 100 100 100 100 100 100 100 94 100 97 100 100 100 100 100 100 100 100 100 100 100 100 100 100 100 100 100 100 100
0 0 2 5 5 5 5 0 0 2 5 5 58 100 100 100 100 100 95 100 100 77 94 100 100 77 96 96 100 100 100 100 100 100 100 100 100 100 100 100 100 100 100 100
17 0 0 1 0 0 0 0 0 5 12 75 11 78 100 100 100 100 100 100 100 85 74 96 100 100 100 86 100 100 100 100 100 100 100 100 100 100 100 100 100 100 100 100
0 0 0 8 1 4 0 46 6 6 47 3 2 5 100 42 81 100 100 100 100 100 100 100 100 100 100 69 27 10 100 100 100 100 100 100 100 100 100 100 100 100 100 100
2 0 3 4 42 16 5 0 2 53 5 1 0 0 4 0 1 54 98 100 100 100 9 95 98 98 82 72 99 100 100 100 100 100 100 100 100 100 100 100 100 99 88 28
61 52 62 3 61 45 38 5 37 34 67 3 0 0 0 0 0 34 100 98 72 37 78 100 100 100 100 100 100 100 100 100 100 100 100 90 73 52 15 1 0 0 0 0
100 100 100 63 84 68 99 28 25 12 15 0 0 0 0 0 0 0 78 100 100 100 70 6 40 93 94 90 85 80 32 4 3 5 5 5 3 0 0 0 0 0 0 0
100 100 100 100 98 4 100 99 94 65 4 0 0 0 0 0 0 2 4 4 17 7 3 4 0 0 0 0 0 0 0 0 0 0 0 0 0 0 0 0 0 0 0 0
100 100 100 100 100 100 92 6 26 39 12 4 1 0 0 0 1 11 6 7 26 91 80 5 0 0 0 0 0 0 0 0 0 0 0 0 0 0 0 0 0 0 0 0
100 90 99 100 100 100 100 100 99 56 34 5 25 0 0 1 15 11 8 36 97 33 22 28 15 5 0 0 0 0 0 0 0 0 0 0 0 0 0 0 0 0 0 0
100 100 100 100 100 100 100 84 11 15 5 67 23 4 30 30 74 100 100 100 100 100 100 98 54 5 0 1 1 0 0 0 0 0 0 0 0 0 0 0 0 0 0 0
100 100 100 98 99 100 57 34 14 3 90 100 89 46 99 100 100 100 100 100 100 100 100 97 7 5 5 1 0 0 0 0 0 0 0 0 0 0 0 0 0 0 0 0
100 100 99 100 75 14 5 40 71 100 100 100 98 98 100 100 100 100 100 100 99 86 15 61 6 5 5 5 4 4 1 3 0 0 0 0 0 0 0 0 0 0 0 0
100 100 100 95 6 10 11 5 5 92 100 100 90 100 100 100 80 51 13 8 54 92 62 8 5 5 5 4 5 2 0 0 0 0 0 0 0 0 0 0 0 0 0 0
100 100 100 92 82 46 46 40 5 5 4 20 3 42 95 56 30 76 98 100 58 77 49 17 5 4 1 0 0 0 0 0 0 0 0 0 0 0 0 0 0 0 0 0
100 100 100 100 100 98 100 100 100 100 100 100 74 5 76 100 100 100 100 100 100 29 5 5 5 4 0 0 0 0 0 0 0 0 0 0 0 0 0 0 0 0 0 0
100 100 100 97 99 100 100 99 85 34 32 89 100 100 100 99 73 95 69 10 4 4 0 0 0 0 0 0 0 0 0 0 0 0 0 0 0 0 0 0 0 0 0 0
100 100 100 100 100 100 72 95 100 100 100 100 100 100 99 100 52 5 5 0 0 0 0 0 0 0 0 0 0 0 0 0 0 4 5 2 0 0 0 0 0 0 0 0
100 100 100 100 100 100 100 100 100 100 100 99 98 100 100 49 8 5 0 0 0 0 0 0 0 0 0 3 0 0 0 4 5 5 0 0 0 0 0 0 0 0 0 4
100 100 100 100 100 100 100 100 95 50 48 99 90 14 5 0 0 0 0 0 0 0 0 0 0 0 5 5 0 4 5 5 0 0 0 0 0 0 0 0 3 0 1 5
100 100 100 100 100 99 95 94 91 34 13 2 0 0 3 0 0 0 2 20 4 0 0 4 5 2 2 40 4 5 5 2 4 2 0 0 5 5 5 5 4 3 5 2
99 50 83 100 48 52 26 7 2 0 0 0 0 0 0 0 0 4 5 5 1 5 4 0 0 0 5 5 94 0 0 0 0 0 2 5 5 5 5 5 5 5 5 80
54 36 10 3 3 2 0 0 1 0 0 0 0 0 0 2 25 98 10 5 0 1 5 3 5 5 94 40 6 0 0 0 5 5 5 5 5 5 5 5 5 6 76 92
3 4 4 0 4 5 0 0 0 0 0 1 5 5 5 5 5 0 0 0 3 0 1 5 5 91 35 2 5 5 0 0 5 5 5 5 5 5 5 5 65 66 100 100
3 5 4 3 0 0 0 1 2 3 2 0 0 0 0 5 0 0 0 0 0 0 5 83 99 61 0 1 0 0 0 0 5 5 5 5 5 5 42 81 87 95 100 100
5 5 0 0 0 0 0 0 0 0 1 5 5 1 0 0 0 0 0 0 0 5 69 100 65 82 0 0 0 4 5 5 5 5 5 5 8 32 76 98 100 100 100 100

GFSCGP_prec_cloud_078.txt.gz
Cloud_Cover
0 0 0 12 0 80 100 19 93 100 100 98 71 100 100 100 100 100 100 100 73 23 48 87 100 87 36 7 90 37 12 61 80 67 73 88 100 100 100 100 100 100 68 98
4 2 0 44 96 100 100 100 17 35 96 87 83 100 100 100 100 100 100 100 81 84 68 100 98 97 94 68 89 82 97 100 96 100 100 100 63 100 71 54 91 100 100 100
41 3 0 1 7 87 100 67 98 87 43 90 100 100 64 37 64 100 100 100 100 100 100 100 100 91 100 100 100 61 99 100 100 99 100 100 100 100 100 100 100 100 100 100
2 2 0 0 2 18 100 32 66 100 100 88 89 100 24 5 82 100 74 36 95 100 100 100 100 100 100 100 100 100 100 100 100 100 100 100 100 100 100 100 100 100 100 100
0 0 10 0 0 4 86 86 100 100 100 98 20 9 96 5 5 100 64 5 47 98 99 100 100 100 100 100 100 100 100 97 52 19 7 25 99 100 100 100 95 5 3 0
88 54 3 0 3 4 5 36 97 100 100 88 5 5 7 4 5 5 4 1 0 0 1 4 12 59 99 77 94 89 57 24 87 100 100 100 79 50 1 0 0 0 0 0
95 97 40 23 0 4 97 46 16 78 61 40 5 0 26 5 5 0 1 0 0 0 0 2 3 5 50 54 5 1 4 2 3 0 0 0 0 0 0 0 0 0 0 0
100 100 100 100 92 86 80 100 100 94 67 91 31 0 0 0 0 5 1 0 0 0 0 0 3 0 0 25 85 80 43 7 2 2 0 0 0 0 0 0 0 0 0 0
100 100 100 100 100 99 99 100 100 99 60 31 2 2 0 5 0 0 0 0 0 0 0 1 14 96 99 96 98 43 54 98 39 5 5 0 0 0 0 0 0 0 0 0
98 100 100 100 100 100 100 100 94 100 70 71 5 3 0 1 1 0 2 2 2 12 26 42 93 100 73 17 82 100 100 79 36 5 2 2 0 1 1 0 0 0 0 0
100 100 100 100 100 100 100 100 100 93 48 18 3 0 0 0 0 38 72 15 5 7 82 96 100 100 99 100 100 100 84 88 12 5 4 2 1 0 0 0 0 0 0 0
100 73 96 100 100 100 100 100 100 98 99 100 33 0 3 4 45 100 100 92 96 100 100 100 100 100 100 100 100 17 5 5 5 5 2 0 0 0 0 0 0 0 0 0
100 100 100 100 100 100 100 100 98 87 17 0 0 9 62 100 100 100 100 100 100 100 100 100 100 91 20 6 8 17 5 5 5 5 5 4 0 0 0 0 0 0 0 0
100 100 100 100 68 26 6 6 5 5 5 5 39 100 100 100 100 100 100 100 100 100 97 54 91 91 13 65 9 5 4 1 0 0 0 0 0 0 0 0 0 3 0 0
100 100 100 100 100 100 91 60 49 5 5 35 95 100 100 100 100 100 100 84 46 89 100 95 36 5 5 4 1 0 0 0 0 0 0 0 0 0 0 0 4 4 0 0
100 100 100 100 100 100 100 100 100 100 100 58 95 100 100 100 93 77 29 67 94 6 5 5 5 2 0 0 0 0 0 5 0 0 0 0 0 0 0 0 0 0 0 0
96 100 100 100 100 100 100 100 100 100 100 100 100 94 83 87 89 100 96 61 20 7 8 5 0 0 0 0 0 4 5 1 0 0 0 0 0 1 0 0 0 0 0 0
100 100 100 100 100 100 99 100 100 100 100 93 99 74 100 100 100 35 37 46 5 3 0 0 0 0 0 1 5 5 5 4 1 0 0 0 2 0 0 0 0 0 0 0
100 100 100 100 100 96 91 92 100 100 100 100 100 100 100 100 38 10 2 0 0 0 0 0 0 0 1 5 1 5 0 0 0 0 2 30 5 1 0 0 0 0 0 0
100 100 100 80 100 100 82 100 100 100 100 100 97 100 96 4 0 0 0 0 0 0 0 1 5 0 0 0 0 0 0 0 0 11 98 38 5 5 2 5 0 5 0 5
100 100 100 100 100 100 100 100 100 100 100 96 24 0 0 0 0 0 0 0 0 2 4 0 0 0 0 0 0 0 0 0 57 12 1 5 5 5 5 5 5 5 5 6
100 100 99 100 100 100 100 100 100 58 2 2 1 0 0 0 0 0 0 0 0 0 0 0 0 0 0 0 0 0 37 1 0 0 5 5 5 5 5 5 5 5 14 100
100 100 98 100 95 100 30 6 3 5 5 0 0 0 0 0 0 0 0 0 0 0 0 0 0 0 0 0 3 5 4 3 0 0 5 5 5 5 5 5 5 31 98 100
36 100 90 23 5 4 5 5 2 0 0 0 0 0 0 0 0 0 0 0 0 0 0 0 0 0 0 0 1 0 0 0 3 5 5 5 5 5 5 5 19 96 100 100
6 5 5 4 5 5 2 0 0 0 0 0 0 0 0 0 0 0 0 0 0 3 0 0 0 0 0 0 0 0 3 5 5 5 5 5 5 5 5 56 68 100 100 100
4 3 5 5 4 0 0 0 0 0 0 0 0 0 1 0 0 0 0 3 0 0 0 0 0 0 0 0 0 2 5 5 5 5 5 5 5 5 44 100 100 100 100 100

GFSCGP_prec_cloud_084.txt.gz
Cloud_Cover
0 0 0 0 0 0 0 0 3 17 91 100 98 62 86 100 100 100 100 100 100 100 100 100 100 100 100 74 11 70 100 99 84 53 87 100 100 100 100 99 97 66 51 6
0 0 0 0 0 0 3 44 4 5 26 100 100 100 100 100 100 100 100 100 100 100 100 100 100 90 23 53 32 56 98 46 36 20 46 65 22 12 41 49 10 20 4 3
34 1 0 0 0 0 33 98 95 63 73 100 100 99 100 100 100 100 100 100 100 100 100 100 100 100 100 95 65 93 100 97 100 100 100 100 100 91 92 79 92 100 90 62
100 100 21 0 0 0 38 82 99 98 99 100 100 47 89 48 100 100 100 100 100 100 100 100 100 100 100 100 100 100 100 100 100 100 100 99 70 54 14 5 4 0 0 0
100 100 0 0 0 0 0 0 0 23 97 94 83 34 100 100 100 100 100 100 100 100 100 100 100 98 60 70 66 74 49 30 10 7 12 5 5 0 0 0 0 5 6 37
100 52 11 98 25 0 1 39 83 43 99 60 100 30 100 100 100 100 100 100 100 100 100 100 100 91 61 63 71 62 36 20 9 5 1 2 3 0 0 4 5 5 35 5
100 94 89 100 87 24 100 100 100 82 14 33 97 51 100 100 100 100 100 100 89 62 78 93 86 80 79 54 41 41 30 6 5 5 0 1 4 5 5 5 5 5 11 22
89 21 100 100 78 2 100 100 100 71 24 100 100 98 100 100 100 100 100 100 93 64 52 65 74 66 59 42 9 5 5 5 10 31 88 8 5 37 81 82 44 69 26 5
100 100 99 100 100 12 6 23 71 96 13 94 100 100 100 100 100 100 100 100 100 100 100 100 100 100 99 58 7 65 46 48 61 22 79 100 79 98 100 96 74 7 5 9
100 100 97 100 94 53 1 20 87 54 92 89 94 100 100 100 100 100 100 100 100 99 85 87 100 99 44 23 69 55 97 99 92 88 100 100 100 86 13 5 10 58 49 7
100 100 100 98 100 95 2 5 59 85 77 96 91 95 97 98 73 20 76 85 87 95 69 16 29 32 56 68 88 100 100 100 100 100 100 98 21 5 32 91 26 2 0 2
100 100 100 100 100 100 98 86 39 86 100 94 100 100 100 98 59 96 100 87 48 19 47 40 58 98 100 100 100 100 100 100 100 93 19 5 38 98 6 5 0 5 5 3
90 100 100 99 100 100 96 100 100 100 82 70 79 100 94 62 25 63 67 66 61 96 29 8 21 83 100 100 100 100 100 61 5 6 41 89 15 4 0 4 4 0 0 0
84 100 100 100 100 100 100 97 98 80 83 87 81 100 99 100 100 96 83 48 40 69 7 74 90 100 100 100 100 87 28 23 64 43 6 3 1 4 2 0 0 0 0 0
99 100 100 100 100 100 100 100 100 100 73 100 100 100 36 27 72 98 79 60 18 5 44 96 100 100 100 85 26 70 26 6 5 1 2 5 5 5 0 0 0 0 0 0
100 100 98 100 100 100 100 100 100 76 100 100 100 100 100 100 58 5 5 12 12 68 100 100 95 72 22 47 21 5 3 0 0 5 5 5 5 0 0 0 0 0 0 0
100 95 100 100 100 100 100 100 100 100 100 100 100 19 5 13 5 18 62 100 100 99 100 95 51 12 19 5 0 0 0 2 5 5 5 1 0 0 0 0 0 0 0 0
78 84 98 100 100 100 100 100 100 100 100 99 30 69 87 100 100 100 100 100 100 100 100 38 4 1 0 0 0 0 4 5 5 3 0 0 0 0 0 0 5 5 4 2
53 100 100 65 99 100 97 100 100 100 93 100 100 100 100 100 100 100 100 100 100 20 1 0 0 0 0 0 0 2 5 1 0 0 0 0 0 0 0 5 5 5 5 0
50 92 98 100 100 100 100 100 100 100 100 100 100 100 100 100 100 100 46 7 2 0 0 0 0 0 0 0 0 0 0 0 0 1 3 0 0 0 4 5 5 5 5 5
100 27 43 100 100 99 100 99 98 100 100 100 100 100 87 46 24 5 1 0 0 0 0 0 0 0 0 0 0 0 0 0 1 0 0 0 0 1 5 5 5 5 5 5
66 5 12 22 69 100 88 100 100 100 100 100 88 24 13 2 0 0 0 0 0 0 0 0 0 0 0 0 0 0 1 10 0 0 2 5 5 5 5 5 5 5 5 68
31 26 57 66 79 76 98 100 100 100 100 67 3 4 0 0 0 0 0 0 0 0 0 0 0 0 0 0 0 0 6 0 0 5 5 4 5 5 5 5 5 5 11 67
54 44 66 40 79 92 90 38 95 48 20 3 1 0 0 0 0 0 0 0 0 0 0 0 0 0 0 0 0 0 0 3 5 5 4 5 5 5 5 5 5 49 69 91
87 92 100 77 73 51 14 5 4 0 0 0 0 0 0 0 0 0 0 0 0 0 0 0 0 0 0 0 0 0 1 5 5 5 5 5 5 5 5 5 6 93 46 94
95 18 49 97 65 99 6 4 0 0 0 0 0 0 0 0 0 0 0 1 3 0 0 0 0 0 0 0 4 5 5 5 5 5 5 5 5 5 5 5 8 30 12 98

GFSCGP_prec_cloud_090.txt.gz
Cloud_Cover
0 0 0 0 0 0 0 0 0 2 4 4 0 6 100 100 100 100 100 100 100 100 89 100 100 100 100 100 100 100 100 96 94 100 100 100 100 100 100 100 100 100 100 100
7 16 2 0 0 0 0 0 0 5 52 17 5 5 1 93 100 100 100 100 100 100 100 100 100 100 100 100 100 100 100 96 100 100 100 100 100 100 100 100 90 90 75 77
65 8 5 2 5 3 5 5 0 17 94 2 2 5 0 0 100 100 100 100 100 100 100 100 100 100 100 100 100 100 95 100 100 100 100 100 100 100 100 97 100 88 100 100
13 66 10 4 3 16 5 0 0 0 62 10 0 0 5 0 79 100 100 100 100 100 100 100 100 100 100 100 83 73 100 95 100 100 100 100 100 100 100 100 100 100 100 74
53 100 100 99 50 76 95 1 0 2 16 100 85 4 99 0 5 96 100 100 100 100 100 100 100 100 100 100 91 54 51 98 100 100 100 100 100 100 98 53 50 24 5 5
100 100 81 57 32 7 30 21 100 98 57 37 84 4 31 5 6 100 100 100 100 100 100 100 100 100 100 100 85 100 100 100 100 89 100 100 88 57 42 17 36 6 5 5
81 100 98 97 100 21 2 56 100 100 100 94 95 47 94 0 2 55 100 100 100 100 100 100 100 100 100 100 100 100 100 100 100 100 98 77 94 81 48 65 71 47 5 5
100 87 99 100 100 87 100 100 100 100 100 100 100 49 4 0 0 8 100 100 99 100 100 100 100 100 100 100 100 100 93 100 100 100 91 81 98 93 99 97 52 6 5 5
100 100 100 100 100 100 100 100 100 100 100 99 53 6 6 0 0 5 96 98 94 99 100 100 100 98 79 94 99 96 93 100 100 100 100 100 100 92 99 48 7 48 8 6
80 100 100 100 92 90 100 100 100 100 100 100 74 95 18 5 0 5 94 100 100 100 100 100 100 100 92 99 100 100 100 100 100 100 100 86 94 77 34 42 33 67 94 90
13 92 100 100 100 100 100 100 100 96 100 100 100 99 9 5 86 68 83 100 100 100 100 100 100 97 97 99 100 100 100 100 100 100 40 24 11 44 14 47 59 97 98 23
48 84 100 83 100 86 100 100 100 100 100 100 100 100 100 84 5 25 94 100 100 100 100 100 100 100 100 100 100 94 64 14 5 5 6 90 61 88 97 100 67 19 5 2
65 52 99 93 100 99 100 100 100 100 100 100 100 100 80 30 5 5 63 97 100 100 100 100 100 100 77 14 9 5 5 5 27 78 78 93 96 94 20 5 5 4 5 1
23 46 77 93 100 96 98 41 71 89 100 100 100 100 100 93 46 35 51 97 98 99 99 73 25 32 68 17 5 5 27 58 57 100 99 75 8 5 5 3 5 2 0 0
8 91 30 8 49 92 92 100 98 100 80 100 99 61 100 99 100 100 100 99 70 30 48 38 53 35 7 5 5 19 66 99 91 47 5 5 6 1 3 3 0 0 0 0
1 5 77 58 55 26 100 64 100 23 48 100 100 100 100 100 100 99 88 23 5 5 5 5 5 5 5 25 47 96 91 17 5 27 4 0 4 5 0 0 0 0 0 0
0 2 5 74 81 73 91 93 100 100 100 100 88 72 99 100 100 100 5 5 5 5 5 5 5 22 36 94 87 9 25 4 1 0 0 4 2 0 0 0 0 0 0 2
4 4 5 5 6 57 51 92 88 83 100 82 13 5 15 8 18 5 5 5 5 5 5 5 59 100 48 14 15 2 0 0 0 0 1 0 0 0 0 0 0 0 5 5
5 5 8 9 5 5 46 62 54 100 89 94 65 48 54 56 16 5 50 47 42 6 82 89 21 5 1 0 0 0 0 0 0 0 0 0 0 0 0 0 1 5 5 5
5 5 51 5 95 60 92 78 100 24 59 100 100 21 5 5 5 5 5 21 85 94 9 0 0 0 0 0 0 0 0 0 0 0 0 0 0 0 4 5 5 5 5 5
5 5 5 36 28 75 100 100 100 75 29 32 79 16 9 6 35 25 32 30 2 0 0 0 0 0 0 0 0 0 0 0 0 0 0 0 1 5 5 5 5 5 5 5
4 7 5 57 5 38 91 100 100 99 97 100 100 93 100 95 15 50 4 0 0 0 0 0 0 0 0 0 0 0 0 0 0 0 0 1 5 5 5 6 27 9 6 5
5 5 5 5 5 5 46 41 60 65 64 30 65 100 100 62 62 1 0 0 0 0 0 0 0 0 0 5 2 0 0 0 0 1 5 5 5 5 23 36 24 32 6 5
5 5 2 5 2 5 5 11 22 5 18 68 91 54 48 33 2 0 0 0 0 0 0 0 0 0 4 5 0 0 0 0 2 5 5 5 5 6 32 41 27 5 5 11
0 5 0 0 1 5 5 5 23 5 5 5 5 9 51 2 0 0 0 0 0 0 0 0 0 0 0 0 0 0 0 4 5 5 9 9 22 58 20 5 5 5 29 98
0 0 2 0 1 5 1 5 5 5 5 53 5 1 0 0 0 0 0 0 0 0 0 0 0 0 0 0 0 5 5 5 5 7 5 22 6 5 5 5 5 51 66 100

GFSCGP_prec_cloud_093.txt.gz
Cloud_Cover
4 3 5 18 25 2 0 0 0 0 0 0 5 90 100 100 100 100 100 100 100 100 100 20 91 68 100 86 100 100 100 93 100 100 100 100 100 100 100 100 100 100 100 100
52 95 82 100 96 47 0 0 0 0 0 2 9 5 5 80 100 100 100 100 100 100 100 98 24 70 100 100 100 100 100 100 99 100 100 94 72 80 100 100 100 100 100 100
71 80 11 46 88 100 76 9 5 4 0 2 65 33 5 16 74 100 100 100 100 100 100 100 100 100 100 100 100 100 100 100 100 100 100 42 46 72 100 100 100 100 100 49
85 32 78 85 98 100 100 99 69 5 5 9 98 99 96 98 96 16 82 100 100 100 100 100 100 100 100 100 100 100 100 100 100 100 100 100 99 97 100 99 53 60 76 77
13 42 77 15 79 26 63 100 60 100 12 100 72 97 5 67 94 31 0 60 100 100 100 100 100 100 100 100 100 100 100 100 100 100 100 100 90 92 99 98 74 41 20 33
57 100 24 12 98 2 22 91 100 95 76 100 100 100 29 83 15 9 5 0 32 100 100 100 100 100 100 100 100 100 100 100 100 100 100 100 100 100 93 81 92 100 100 82
86 100 65 88 69 77 81 100 100 100 81 100 100 100 100 64 100 68 64 44 0 89 100 100 100 100 100 100 100 100 100 100 100 100 100 100 100 100 100 100 56 15 23 23
36 77 63 20 99 100 100 100 100 100 73 68 100 100 100 95 96 0 4 0 0 3 100 100 100 100 100 100 100 100 100 100 100 100 100 100 100 100 100 44 47 5 11 34
24 94 33 96 97 100 100 100 100 100 100 100 100 97 100 44 14 0 0 0 0 0 74 100 100 100 100 100 100 100 100 100 100 100 100 100 100 100 83 58 52 79 58 65
26 76 57 27 71 100 100 100 100 100 100 100 100 100 99 17 0 5 4 0 1 5 93 100 100 100 100 100 100 100 100 100 100 100 100 100 100 89 78 82 96 52 22 5
5 48 72 100 100 100 100 82 100 100 100 100 100 100 38 96 4 1 34 4 2 12 9 93 100 100 100 100 100 100 100 100 74 100 100 100 89 100 61 28 13 10 5 17
0 5 29 89 88 89 95 100 100 100 100 100 100 98 36 41 100 100 100 100 100 55 40 100 100 100 100 100 100 100 100 100 100 100 100 86 64 41 14 41 23 21 2 4
3 1 3 87 100 100 100 40 42 100 100 100 100 100 100 100 28 44 77 67 66 54 97 100 100 100 100 100 100 100 100 100 90 58 73 72 65 55 13 21 5 4 0 0
0 4 5 2 14 48 99 94 98 100 100 100 100 100 100 98 100 100 100 100 100 100 100 100 100 100 100 100 100 93 60 87 99 100 72 41 49 19 5 4 0 0 0 0
0 0 0 5 5 19 7 94 92 100 100 100 100 100 94 100 100 100 100 97 78 96 100 87 13 16 22 34 87 100 100 89 38 39 70 10 5 5 3 5 0 0 0 0
0 0 0 0 5 4 88 67 64 16 21 80 97 100 82 99 100 100 88 76 96 84 26 7 5 5 23 99 85 56 8 23 67 5 5 3 5 5 0 0 0 0 0 0
0 0 0 0 0 5 5 94 70 83 99 80 70 67 71 96 99 100 100 90 41 5 5 5 5 5 5 5 9 83 27 5 5 5 5 1 0 0 0 0 0 0 3 5
0 0 0 0 0 4 5 21 78 89 6 98 94 84 13 26 53 45 6 8 5 5 4 5 5 5 46 97 23 5 5 5 2 0 0 0 0 0 0 0 0 4 5 5
0 0 0 0 0 1 5 5 26 97 100 85 8 5 3 4 5 5 2 2 3 5 5 5 50 100 30 5 5 0 0 0 0 0 0 0 0 0 1 5 5 5 5 5
0 0 0 0 0 1 1 5 2 85 45 43 99 100 100 87 64 38 12 5 5 10 64 98 40 4 0 0 0 0 0 0 0 0 0 0 1 1 5 5 5 5 5 5
2 0 0 0 0 0 0 1 5 5 5 5 15 93 23 5 5 8 13 40 68 75 4 0 0 0 0 0 0 0 0 0 0 0 0 1 5 5 5 5 5 17 20 22
2 0 0 0 0 1 2 1 5 5 5 5 5 5 5 5 5 24 5 16 6 0 0 0 0 0 0 0 0 0 0 0 0 0 4 5 5 5 5 9 8 14 55 75
0 0 0 0 2 0 0 0 5 5 5 5 5 5 8 42 16 5 5 3 0 0 0 0 0 0 0 0 0 0 4 0 4 5 5 8 5 5 6 15 57 65 80 14
0 0 0 0 4 2 0 0 0 4 4 5 5 5 44 14 6 61 5 0 0 0 0 0 0 0 0 0 0 0 4 5 5 5 10 17 16 10 11 60 72 18 5 5
4 2 3 0 3 2 0 0 0 0 5 5 5 12 5 9 13 22 2 0 0 0 0 0 0 0 0 0 2 5 3 3 5 9 49 67 62 8 27 5 5 5 9 80
3 0 4 0 0 0 0 0 0 0 4 5 5 5 5 6 3 0 0 0 0 0 0 0 0 0 1 2 5 5 5 5 11 31 81 73 16 5 5 5 5 7 50 92

GFSCGP_prec_cloud_096.txt.gz
Cloud_Cover
26 5 24 14 49 44 60 5 4 0 0 0 0 86 100 100 100 100 100 100 100 100 100 100 100 100 100 100 100 100 99 100 95 76 89 100 100 100 100 100 100 100 100 100
4 6 56 54 10 15 39 16 5 0 0 0 0 0 97 100 100 100 100 100 100 100 100 100 100 100 78 100 100 100 94 100 100 100 100 100 100 100 100 100 100 100 100 86
4 30 36 88 90 70 17 61 5 21 0 3 0 0 0 73 100 100 100 100 100 100 100 100 100 98 100 100 90 69 99 100 99 100 100 100 100 100 100 100 96 83 100 90
22 41 33 56 6 89 20 50 15 53 98 15 0 0 0 0 71 12 100 100 100 100 100 100 98 100 100 73 100 100 100 100 100 100 100 100 100 100 100 100 100 89 42 63
55 5 90 1 54 79 34 91 96 94 84 78 0 85 0 2 47 46 58 50 100 100 100 100 100 100 82 100 100 100 100 100 100 100 100 100 100 100 100 100 100 100 100 99
18 5 54 12 69 56 100 100 100 100 65 31 0 25 3 86 51 84 43 32 26 25 100 100 100 100 100 100 91 98 100 100 100 100 100 100 100 100 100 100 100 100 94 100
5 26 44 83 100 99 100 100 100 100 100 87 82 68 100 24 16 100 4 98 100 0 4 100 100 100 100 100 100 100 100 100 100 100 100 100 100 100 84 83 87 100 100 100
1 5 67 20 35 100 100 100 100 100 100 100 100 100 100 100 85 100 83 96 54 4 0 0 5 82 100 100 100 100 100 100 100 100 100 100 100 100 100 100 100 100 100 57
0 5 38 39 100 100 100 100 100 100 100 100 100 100 100 100 100 100 98 98 39 12 1 0 1 5 99 100 100 100 100 100 100 100 100 100 100 100 100 100 100 100 91 36
0 0 34 93 83 58 100 100 100 100 100 100 100 100 98 100 100 100 100 76 5 4 0 1 1 4 5 100 100 100 100 100 100 100 100 100 100 99 100 100 100 95 8 64
0 0 2 59 67 32 39 100 100 100 100 98 100 100 100 100 100 100 73 21 0 0 1 3 2 4 5 22 100 100 100 100 100 86 98 94 97 100 100 100 91 100 96 28
0 0 0 5 87 61 65 90 100 100 100 100 84 17 96 100 100 30 6 98 2 90 87 73 51 5 5 19 82 100 100 100 100 100 100 84 100 100 100 98 21 5 5 5
0 0 0 0 0 0 86 63 72 100 100 100 100 74 85 100 100 100 23 71 91 92 98 99 99 89 86 88 81 100 100 100 90 100 100 100 94 37 5 5 5 5 2 0
0 0 0 0 0 0 0 10 7 53 99 73 96 100 100 100 100 100 100 99 100 100 99 98 99 94 90 96 70 100 100 100 91 29 37 11 5 5 5 5 5 4 0 0
0 0 0 0 0 0 0 5 8 10 72 100 100 100 99 100 100 100 100 100 100 100 100 100 97 62 10 6 18 15 26 52 52 41 52 10 5 5 5 5 5 4 0 0
0 0 0 0 0 0 0 0 6 5 9 100 100 100 100 100 100 100 100 100 100 100 100 83 100 30 6 32 28 59 36 56 48 5 5 5 5 5 5 5 0 0 0 0
0 0 0 0 0 0 1 5 3 5 5 100 72 80 90 97 96 98 100 100 100 100 100 100 99 99 92 71 34 14 6 30 31 5 5 8 8 1 0 0 0 0 0 0
0 0 0 0 0 14 0 4 1 4 5 59 74 100 100 54 45 31 61 48 72 57 71 70 59 50 55 45 75 98 60 5 5 3 1 0 0 0 0 0 0 0 0 0
0 0 0 0 0 0 0 0 5 5 54 88 97 72 53 37 5 5 18 21 5 5 11 34 62 70 99 100 68 6 3 0 0 0 0 0 0 0 0 0 0 3 4 4
0 2 0 0 0 1 0 0 0 5 5 5 5 85 100 100 100 94 12 40 62 65 21 76 99 75 9 4 0 0 0 0 0 0 0 0 0 0 0 5 5 5 5 5
2 5 1 0 0 0 4 0 0 5 5 5 5 8 95 96 100 91 73 80 69 59 61 21 5 0 0 0 0 0 0 0 0 0 0 0 1 5 5 5 5 5 5 5
5 20 13 0 0 0 1 3 0 0 4 5 5 5 8 9 26 45 79 100 20 5 5 3 0 0 0 0 0 0 0 0 0 0 0 4 5 5 5 5 5 11 6 5
7 25 35 1 4 0 0 0 2 0 0 4 5 5 5 5 5 58 86 56 20 5 0 0 0 0 0 0 0 0 0 0 0 0 5 5 5 5 5 5 5 5 5 5
5 75 6 2 0 0 0 0 0 0 0 0 5 5 5 5 5 18 6 13 72 3 0 0 0 0 0 0 0 0 0 1 1 5 5 5 19 5 5 5 5 3 0 0
3 69 5 43 0 0 0 0 0 0 0 0 4 5 5 5 5 5 23 11 4 1 0 0 0 0 0 0 0 4 2 4 5 5 5 5 5 5 5 1 0 0 17 48
5 31 71 53 0 0 2 0 0 0 0 0 0 5 5 5 5 5 5 3 0 0 0 0 0 0 0 0 5 5 5 5 5 5 5 5 5 2 4 0 0 2 5 6

GFSCGP_prec_cloud_099.txt.gz
Cloud_Cover
4 18 24 53 87 12 5 3 5 4 0 4 0 0 0 100 100 100 100 85 17 100 100 100 100 100 100 100 100 100 100 100 100 100 100 100 100 100 100 100 100 100 11 100
0 3 15 8 5 2 5 5 1 0 0 4 0 0 0 6 100 100 100 100 83 100 100 96 64 100 100 100 100 100 100 100 100 100 100 100 100 100 98 100 100 100 99 73
0 5 5 8 7 54 77 100 66 5 5 3 0 0 0 0 15 58 100 100 96 58 100 61 72 100 100 100 100 100 100 100 100 100 100 100 100 100 100 100 100 100 100 100
0 1 5 78 100 100 100 90 86 100 63 2 2 1 0 0 0 3 37 100 100 95 91 100 100 100 100 100 100 100 100 98 100 100 100 100 100 100 100 100 100 100 100 100
0 4 60 100 100 100 100 69 100 100 100 8 24 4 0 0 0 0 3 20 100 100 100 87 100 100 89 96 99 100 100 100 100 100 100 100 100 100 100 100 100 100 100 99
0 5 18 100 100 70 100 99 100 100 100 100 9 10 0 0 0 0 0 4 33 100 100 100 100 100 100 84 100 100 100 100 100 100 100 100 100 100 100 100 31 89 100 96
0 3 5 49 97 100 100 100 100 100 100 100 97 64 0 0 0 2 5 2 76 100 100 100 100 100 100 100 100 100 100 100 100 100 100 100 100 100 100 88 98 86 100 100
0 0 3 5 98 100 100 100 100 100 100 100 100 100 97 16 100 1 80 8 14 8 62 100 96 100 100 98 100 100 100 100 100 100 100 100 100 100 100 100 100 82 95 100
0 0 2 5 33 28 96 100 100 100 100 100 100 100 100 100 100 100 62 100 16 7 89 57 6 10 97 100 100 100 100 100 100 100 100 99 100 100 100 100 100 100 100 100
0 0 0 0 0 87 78 70 99 100 100 100 100 100 100 100 100 100 100 29 44 22 70 90 100 100 55 4 18 14 99 100 100 100 100 100 100 100 100 100 100 100 100 100
0 0 0 0 1 2 22 100 98 94 100 100 100 100 100 100 100 100 100 100 100 100 100 100 100 100 5 2 51 72 89 100 100 100 100 100 100 100 100 100 100 100 100 89
0 0 0 0 0 0 5 5 75 100 100 100 84 100 100 100 92 100 97 96 100 100 100 100 58 8 2 16 10 38 88 100 100 99 94 100 100 100 100 100 100 91 60 39
0 0 0 0 1 0 0 2 56 9 100 99 66 80 97 99 100 75 67 47 18 74 98 83 92 43 5 27 34 38 33 56 65 100 88 47 34 78 100 98 40 39 28 27
0 0 0 0 0 0 0 1 5 5 5 57 49 87 99 100 100 98 100 61 36 99 42 36 35 26 71 78 85 66 90 100 76 86 84 93 82 48 27 11 39 73 57 13
0 0 0 0 0 0 0 0 0 4 13 41 66 97 98 90 100 100 99 91 88 75 63 52 55 87 100 100 100 100 68 33 68 12 6 7 25 6 29 62 30 6 5 3
0 0 0 0 0 0 0 0 0 1 5 5 5 92 100 99 100 100 100 100 100 100 100 86 70 96 89 82 99 47 5 45 5 5 5 5 5 5 14 5 0 0 0 0
29 1 0 0 0 0 0 0 0 0 0 1 45 60 100 94 52 100 100 92 96 92 90 94 58 76 90 96 87 66 15 5 5 14 5 8 11 1 0 0 0 0 0 0
7 5 3 0 0 0 0 0 0 0 0 2 40 5 14 34 5 36 25 5 46 17 92 97 71 32 12 5 5 5 5 25 38 5 5 2 0 0 0 0 0 0 0 0
39 9 14 1 0 0 0 0 0 0 0 0 22 60 59 84 96 97 62 5 7 5 5 5 5 5 5 10 85 79 12 5 1 0 0 0 0 0 0 0 0 0 0 0
5 33 97 6 1 1 0 0 0 0 0 2 4 5 20 100 100 100 84 99 33 11 25 52 62 93 56 17 5 1 0 0 0 0 0 0 0 0 0 2 5 0 0 1
6 33 92 45 4 0 0 0 0 0 0 3 5 5 5 32 71 49 54 54 71 100 100 95 85 58 5 3 0 0 0 0 0 0 0 0 0 0 5 5 4 5 5 5
5 16 60 100 78 0 0 0 0 0 0 0 0 2 5 5 5 5 7 46 82 99 10 5 5 1 0 0 0 0 0 0 0 0 0 4 5 5 5 5 5 5 5 5
100 100 36 100 100 11 0 0 0 0 0 0 0 0 4 5 5 5 36 75 85 85 50 14 0 0 0 0 0 0 0 0 0 0 5 5 5 5 5 5 5 5 3 0
100 100 80 59 100 8 5 4 0 0 0 0 0 0 0 0 2 4 5 12 8 5 27 15 2 0 0 0 0 0 0 0 0 5 5 5 5 5 5 3 3 0 0 2
100 93 11 70 100 10 6 19 4 5 3 5 0 0 0 0 1 4 2 5 5 5 5 4 0 0 0 0 0 0 0 0 2 5 5 5 5 4 0 0 0 0 4 63
100 94 93 100 62 5 5 9 5 5 5 5 0 0 0 0 0 5 4 5 5 3 0 0 0 0 0 0 0 1 5 5 5 5 5 5 5 0 0 0 0 0 5 5

GFSCGP_prec_cloud_102.txt.gz
Cloud_Cover
0 0 3 5 6 5 5 5 0 0 0 0 0 0 0 0 0 4 71 100 67 7 100 100 100 100 100 100 100 100 100 100 100 100 100 100 100 100 100 100 100 83 90 99
0 0 0 10 28 67 46 8 17 36 1 0 0 0 0 0 0 0 9 5 99 79 6 85 97 100 100 100 100 100 100 100 100 100 100 94 100 100 100 100 100 100 77 99
0 0 89 100 100 86 100 100 100 100 100 44 0 0 0 0 0 0 0 41 10 100 93 16 52 100 100 100 100 100 100 100 100 100 100 100 100 100 100 100 100 100 100 100
0 2 100 100 100 100 100 100 100 100 92 100 97 16 0 0 0 0 0 0 5 10 100 100 71 99 100 100 100 100 100 100 100 100 100 100 100 100 100 100 100 100 100 100
0 1 24 99 100 100 100 100 87 100 100 100 100 100 95 0 0 0 0 0 1 5 82 93 7 77 100 100 100 100 100 100 100 100 100 100 100 100 100 100 100 100 100 100
0 0 0 5 4 94 100 90 100 76 100 100 100 66 18 2 2 0 0 0 0 0 100 100 45 42 100 100 100 100 100 100 100 100 100 100 100 100 100 100 100 100 100 100
0 0 0 4 5 78 46 91 52 41 46 100 100 84 1 1 2 12 0 0 0 1 15 100 100 87 100 100 100 100 100 100 100 100 100 100 100 100 100 100 100 100 100 100
0 0 0 0 0 5 42 53 100 64 100 100 100 100 86 4 46 11 0 0 0 5 68 100 100 100 100 100 100 100 100 100 100 100 100 100 100 100 100 100 100 100 100 100
0 0 0 0 0 0 6 100 48 100 100 100 100 100 100 100 100 57 2 1 1 4 84 97 100 100 100 100 100 100 100 100 100 100 100 100 100 100 100 100 100 100 100 100
0 0 0 0 0 0 5 100 25 85 74 100 75 100 100 100 100 100 90 21 35 82 100 79 100 100 100 100 100 100 100 100 100 100 100 100 100 100 100 100 100 100 100 100
0 0 0 0 0 0 0 7 82 22 61 100 100 84 100 100 100 100 100 94 42 100 100 100 100 100 100 97 66 81 100 100 100 100 100 100 100 100 100 100 100 100 100 100
0 0 0 0 0 0 0 5 40 90 96 88 100 49 100 100 100 100 100 100 100 100 100 99 42 93 98 100 95 98 97 100 100 91 100 100 100 100 100 100 100 50 94 62
0 0 0 0 0 0 0 4 5 5 22 97 90 100 55 25 92 87 100 100 100 100 100 100 100 100 100 100 100 100 91 59 76 100 99 64 83 100 76 42 98 66 14 12
0 0 0 0 0 0 0 0 0 0 4 4 56 92 74 50 28 49 100 100 100 100 100 100 100 100 100 100 99 30 5 77 56 74 98 41 64 61 94 29 5 4 2 5
5 0 0 0 0 0 0 0 0 0 0 0 0 33 60 37 21 66 100 100 100 100 100 100 100 5 24 54 93 98 79 40 39 53 35 5 0 3 4 2 4 4 5 5
5 4 0 0 0 0 0 0 0 0 0 0 0 1 4 5 11 5 2 5 20 100 100 100 100 100 74 28 5 5 3 4 5 5 0 2 5 5 5 5 5 3 0 0
14 5 5 3 0 0 0 0 0 0 0 0 0 0 0 5 5 5 5 5 5 6 5 8 14 9 5 5 5 5 4 4 4 5 5 5 5 4 0 0 0 0 0 0
58 5 5 32 5 0 0 0 0 0 0 0 0 0 5 2 1 3 5 5 5 5 5 5 5 5 5 4 5 5 1 2 5 5 3 0 0 0 0 0 0 0 0 0
97 25 85 63 99 5 1 0 0 0 0 0 0 0 0 1 5 5 5 5 5 5 5 5 5 4 2 4 5 2 4 5 4 3 0 0 0 0 0 0 0 0 0 0
100 100 100 86 93 100 5 0 0 0 0 0 0 0 0 0 1 28 5 5 5 5 5 5 5 5 5 5 5 3 5 0 0 0 0 0 0 0 0 0 0 0 0 2
100 100 100 100 100 99 94 4 4 0 0 0 0 0 0 0 0 0 4 5 5 5 5 5 5 5 5 5 4 1 0 0 0 0 0 0 0 0 1 3 5 5 5 5
100 100 100 100 99 100 100 70 5 16 5 4 0 0 0 0 0 0 0 0 5 5 5 5 5 5 5 0 0 0 0 0 0 0 0 0 2 5 5 5 5 5 4 5
100 30 93 76 80 95 100 54 100 100 77 78 1 0 0 0 0 0 0 0 0 5 5 5 5 5 5 0 0 0 0 0 0 0 0 1 5 5 5 5 5 0 0 0
86 5 62 87 38 100 100 14 71 99 100 98 21 0 0 0 0 0 0 0 0 0 0 0 4 5 4 0 0 0 0 0 0 0 4 5 5 5 5 4 4 0 0 4
6 18 96 67 46 100 97 52 22 88 100 100 99 25 1 0 0 0 0 0 0 0 0 5 5 5 0 0 0 0 0 0 0 4 4 3 2 0 0 0 0 0 5 8
5 20 100 100 92 100 51 100 25 100 100 100 100 100 6 5 0 0 0 0 0 5 5 5 32 5 0 0 0 0 0 5 3 4 5 5 5 0 0 0 0 1 5 5

GFSCGP_prec_cloud_105.txt.gz
Cloud_Cover
0 0 2 1 52 5 79 15 14 0 0 0 0 0 0 0 0 0 34 5 99 13 57 100 100 100 100 100 100 100 100 100 100 100 100 100 100 100 100 96 100 100 100 100
0 0 4 21 100 100 100 100 27 66 94 7 12 0 0 0 0 0 0 2 3 99 31 62 85 100 100 100 100 100 100 100 100 100 100 100 100 100 100 100 100 100 100 100
0 0 2 7 100 72 98 82 100 100 100 100 100 95 66 1 0 0 0 0 0 10 100 16 11 98 100 100 100 100 100 100 100 100 100 100 100 100 100 100 100 100 100 100
0 0 0 5 100 12 25 6 58 71 100 100 100 100 100 87 3 0 0 0 0 0 28 100 35 24 100 100 100 100 100 100 100 100 100 100 100 100 100 100 100 100 100 100
0 0 0 3 35 2 36 74 24 66 98 37 80 89 4 3 81 6 0 0 0 0 0 9 100 100 19 100 100 100 100 100 100 100 100 100 100 100 100 100 100 100 100 100
0 0 0 0 0 5 5 100 12 5 87 72 100 100 4 86 86 78 2 0 0 0 19 0 25 100 82 19 100 100 100 100 100 100 100 100 100 100 100 100 100 100 100 100
0 0 0 0 0 1 0 97 20 9 48 100 100 98 100 100 100 100 84 84 100 30 23 22 15 67 67 32 100 100 100 100 100 100 100 100 100 100 100 100 100 100 100 100
0 0 0 0 0 0 0 13 85 100 88 81 100 100 100 100 100 100 100 100 100 100 79 75 75 67 100 100 100 100 100 100 100 100 100 100 100 100 100 100 100 100 100 100
0 0 0 0 0 0 0 10 14 99 93 81 100 100 100 100 100 100 97 84 100 100 100 100 100 100 100 100 100 100 100 100 100 100 100 100 100 100 100 100 100 100 100 100
0 0 0 0 0 0 0 1 29 7 51 83 100 100 100 100 100 100 100 78 32 68 44 82 100 100 100 100 100 100 100 100 100 100 100 100 100 100 100 100 100 100 100 100
0 0 0 0 0 0 0 4 0 5 25 99 98 100 100 100 100 100 100 16 64 1 13 45 97 100 100 100 100 100 100 100 100 100 100 100 100 100 100 100 100 100 100 100
3 0 0 0 0 0 0 5 0 0 9 65 98 96 91 100 100 100 100 89 88 71 51 100 100 100 100 100 100 100 100 100 100 100 100 100 100 100 72 78 100 100 100 89
10 0 0 0 0 0 0 0 0 0 0 5 8 97 98 84 100 100 100 100 100 100 100 100 100 100 100 100 100 100 100 100 100 100 100 100 100 100 100 100 100 100 100 100
5 5 2 0 3 0 0 0 0 0 0 0 2 5 60 88 96 100 100 100 100 100 100 97 100 100 100 100 68 72 100 100 100 100 100 100 100 100 100 100 100 100 100 90
5 5 5 5 0 4 5 0 0 0 0 0 0 0 2 17 61 35 100 100 100 100 100 100 100 100 100 100 100 100 34 18 54 22 69 33 78 87 61 85 68 48 12 6
5 6 5 5 5 5 8 5 0 0 0 0 0 0 0 0 1 5 5 76 100 100 100 100 45 86 100 90 48 9 5 0 0 4 4 5 15 43 68 13 0 0 0 0
28 27 5 5 11 5 5 5 2 0 0 0 0 0 0 0 0 0 0 0 3 78 100 100 100 100 100 99 92 5 5 2 0 4 2 2 0 0 0 0 0 0 0 0
5 10 5 84 13 5 3 7 7 17 5 5 3 0 0 0 0 0 0 0 0 2 32 40 82 89 88 64 35 6 38 6 4 1 0 0 0 0 0 0 0 0 0 0
5 12 83 78 5 8 6 5 6 93 79 57 21 5 0 0 0 0 0 0 2 4 0 0 1 10 28 49 41 10 0 0 0 0 0 0 0 0 0 0 0 0 0 0
32 100 90 41 7 5 10 9 5 5 68 100 100 36 5 0 0 0 0 0 0 2 0 0 0 0 0 0 0 0 0 0 0 0 0 0 0 0 0 0 0 0 0 0
56 30 38 100 69 27 55 6 5 5 43 75 100 100 30 5 0 0 0 0 0 0 5 5 0 0 0 0 0 0 0 0 0 0 0 0 0 0 0 2 5 5 5 5
72 12 53 100 88 82 81 31 5 5 5 83 94 100 100 97 5 0 0 0 0 0 0 0 4 5 0 0 0 0 0 0 0 0 0 0 0 3 5 5 5 5 5 0
100 5 43 100 72 73 90 22 5 78 50 35 99 80 100 100 99 7 0 0 0 0 0 0 5 0 0 0 0 0 0 0 0 0 0 0 4 5 5 5 5 1 0 0
52 5 73 100 64 93 76 10 5 98 81 49 100 56 58 100 100 100 1 0 0 0 0 0 0 3 0 0 0 0 0 0 0 0 0 5 5 3 1 0 0 0 0 5
19 5 91 100 94 100 29 8 6 60 19 26 100 100 67 44 100 100 20 1 0 0 0 0 0 0 5 5 4 4 5 0 0 0 0 0 0 1 3 0 0 0 5 5
6 5 45 100 100 87 22 30 6 46 5 8 98 100 100 33 100 100 96 5 3 0 0 0 0 4 3 5 5 4 5 5 4 0 1 3 1 4 5 1 0 0 5 5

GFSCGP_prec_cloud_111.txt.gz
Cloud_Cover
0 0 0 0 0 0 0 0 0 0 74 5 5 5 3 0 0 0 0 0 0 0 0 100 100 100 100 100 100 100 100 100 100 100 100 100 100 100 100 100 100 100 100 100
0 0 0 0 0 0 0 0 0 0 2 7 8 44 100 100 100 3 0 0 0 0 0 0 100 100 100 100 100 100 100 100 100 100 100 100 100 100 100 100 100 100 100 100
0 0 0 0 0 0 0 0 0 0 0 4 87 100 98 5 1 5 4 0 0 0 0 0 42 100 100 100 100 100 100 100 100 100 100 100 100 100 100 100 100 100 100 100
5 0 0 0 0 0 0 0 0 0 0 3 83 100 58 4 2 22 1 98 7 0 0 0 0 97 100 100 100 100 100 100 100 100 100 100 100 100 100 100 100 100 100 100
0 0 0 0 0 0 0 0 0 0 0 0 95 92 35 5 79 92 93 46 100 0 0 0 0 0 100 100 100 100 100 100 100 100 100 100 100 100 100 100 100 100 100 100
0 0 0 5 0 0 0 0 0 0 0 2 99 50 54 79 100 100 100 100 100 73 4 33 0 0 26 100 100 100 100 100 100 100 100 100 100 100 100 100 100 100 100 100
0 0 2 5 2 0 0 0 4 1 7 4 9 37 100 100 100 100 100 100 100 99 100 98 56 48 48 78 100 100 100 100 100 100 100 100 100 100 100 100 100 100 100 100
0 0 0 5 5 0 0 0 13 9 6 28 5 87 100 100 100 100 100 100 100 100 100 100 100 99 92 99 100 100 100 100 100 100 100 100 100 100 100 100 100 100 100 100
1 0 0 5 4 0 0 0 1 10 28 48 15 50 100 100 100 100 100 100 100 100 100 100 100 100 100 100 100 100 100 100 100 100 100 100 100 100 100 100 100 100 100 100
5 2 0 5 1 0 0 0 0 2 63 11 4 7 95 100 100 100 100 100 100 100 100 100 100 100 100 100 100 100 100 100 100 100 100 100 100 100 100 100 100 100 100 100
23 5 4 2 0 0 0 0 0 0 13 18 4 4 57 95 100 97 87 84 100 100 100 100 100 100 100 100 100 100 100 100 100 100 100 100 100 100 100 100 100 100 100 100
74 5 5 0 0 0 0 0 0 0 0 14 23 1 6 76 100 100 99 71 98 100 100 100 100 100 100 100 100 100 100 100 100 100 100 100 100 100 100 100 100 100 100 100
21 31 5 1 0 4 0 0 0 0 0 0 0 0 0 4 26 100 100 76 74 100 100 100 100 100 100 100 100 100 100 100 100 100 100 100 100 100 100 100 100 100 100 100
21 88 5 5 0 0 0 2 0 0 0 0 0 0 0 0 0 18 100 100 88 100 93 93 100 100 100 100 100 100 100 100 100 100 100 100 100 100 100 100 100 100 100 100
5 44 60 5 4 0 0 0 0 0 0 5 2 0 0 0 0 0 12 100 95 99 88 100 91 100 98 100 100 100 100 100 100 100 100 100 100 100 100 100 100 100 100 99
5 5 89 5 5 5 5 0 5 0 0 0 0 2 0 0 0 0 0 1 87 100 100 78 99 100 100 100 100 100 100 100 100 100 100 100 100 100 100 94 100 100 100 100
5 5 10 60 7 5 8 5 5 5 0 0 0 1 5 0 0 4 0 0 0 5 100 100 100 100 100 100 100 100 100 100 100 99 97 100 96 100 100 98 100 100 100 100
10 6 76 25 34 5 91 5 5 5 4 0 0 0 5 5 5 1 5 4 0 0 2 34 44 100 100 89 62 100 100 87 58 82 54 40 66 67 74 84 46 63 67 85
47 8 88 47 28 5 75 28 5 2 5 3 0 0 0 3 5 5 5 5 5 0 0 0 0 8 33 100 92 6 5 5 5 6 7 43 61 69 49 34 36 44 51 7
46 84 62 100 10 5 88 8 5 5 5 5 3 0 0 1 5 5 5 5 4 5 3 0 0 0 0 0 5 49 38 5 5 4 5 5 5 0 2 5 5 3 0 4
96 58 65 100 49 5 30 51 5 5 2 16 35 5 5 5 5 5 5 7 5 5 5 5 0 0 0 0 0 0 0 1 0 0 2 0 0 0 0 0 3 5 5 3
100 98 18 66 53 35 39 12 7 5 5 60 70 5 5 5 5 11 6 34 36 6 5 5 5 0 0 0 0 2 3 0 0 0 0 0 0 0 0 0 0 0 2 0
100 96 55 92 7 56 100 5 7 5 5 61 82 8 5 30 93 63 62 33 62 98 33 5 5 0 0 0 0 0 0 2 5 0 0 0 0 0 0 0 0 0 0 4
100 100 100 100 41 94 100 58 12 11 5 5 95 6 5 32 97 100 98 90 100 99 100 26 5 0 0 0 0 0 0 5 5 5 3 4 2 0 0 0 0 5 5 5
100 100 100 95 91 92 76 96 90 51 8 16 100 17 5 70 100 100 100 89 100 100 100 100 38 5 4 0 0 0 3 5 5 5 5 5 5 3 0 0 3 5 5 12
100 100 100 100 93 76 86 87 56 10 60 98 100 5 5 21 100 100 100 100 96 100 100 100 100 47 5 0 0 0 5 5 5 5 5 12 5 4 0 5 3 1 4 5

GFSCGP_prec_cloud_114.txt.gz
Cloud_Cover
0 0 0 0 0 0 0 0 3 2 0 0 5 18 99 42 5 3 3 0 0 0 0 0 4 61 95 100 100 100 100 100 100 100 100 100 100 100 100 100 100 100 100 100
0 0 0 0 0 0 0 0 0 1 0 4 5 10 17 5 5 2 1 2 0 0 0 0 3 7 100 100 100 100 100 100 100 100 100 100 100 100 100 100 100 100 100 100
0 0 0 0 0 0 0 0 0 0 0 1 5 27 5 36 13 6 15 99 8 0 0 0 2 5 50 100 100 100 100 100 100 100 100 100 100 100 100 100 100 100 100 100
0 0 0 0 0 0 0 0 0 0 0 2 4 43 57 15 5 57 94 71 100 12 0 0 0 11 14 100 100 100 100 100 100 100 100 100 100 100 100 100 100 100 100 100
0 0 0 0 0 0 0 0 0 0 0 2 0 47 64 20 82 75 99 100 100 76 36 0 0 0 5 81 100 100 100 100 100 100 100 100 100 100 100 100 100 100 100 100
0 0 0 0 0 0 0 0 0 0 0 66 13 75 92 99 100 100 100 100 100 100 82 1 2 0 0 7 100 100 100 100 100 100 100 100 100 100 100 100 100 100 100 100
5 0 0 0 0 0 0 0 3 2 5 4 4 65 99 100 100 100 100 100 100 100 100 98 3 4 4 95 100 100 100 100 100 100 100 100 100 100 100 100 100 100 100 100
5 5 4 0 0 0 0 0 4 45 1 5 4 51 100 98 100 100 100 100 100 100 100 100 100 100 100 100 100 100 100 100 100 100 100 100 100 100 100 100 100 100 100 100
5 5 1 0 0 0 0 0 0 39 16 63 11 74 73 94 29 100 100 100 100 100 100 100 100 100 100 100 100 100 100 100 100 100 100 100 100 100 100 100 100 100 100 100
5 5 5 0 0 0 0 0 0 2 4 3 5 3 76 62 5 89 96 100 100 100 100 100 100 100 100 100 100 100 100 100 100 100 100 100 100 100 100 100 100 100 100 100
5 5 3 4 1 0 0 0 0 1 1 2 3 0 5 92 56 5 60 100 100 100 100 100 100 100 100 100 100 100 100 100 100 100 100 100 100 100 100 100 100 100 100 100
7 5 5 5 5 2 0 0 0 0 0 1 0 1 0 9 77 5 39 98 100 100 100 100 100 100 100 100 100 100 100 100 100 100 100 100 100 100 100 100 100 100 100 100
5 5 5 1 4 5 1 0 0 0 0 0 0 0 0 0 0 51 8 59 100 100 100 100 99 100 100 100 100 100 100 100 100 100 100 100 100 100 100 100 100 100 100 100
5 5 5 5 1 5 5 0 0 0 0 0 0 0 0 0 0 15 69 77 100 100 100 100 100 100 100 100 100 100 100 100 100 100 100 100 100 100 100 100 100 100 100 100
9 45 48 5 5 0 5 1 0 0 0 0 0 0 0 0 0 0 2 58 59 99 100 99 100 100 100 100 100 100 100 100 100 100 100 100 100 100 100 100 100 100 100 100
13 5 99 53 20 5 0 5 0 0 0 0 4 0 0 0 0 0 0 0 18 4 52 99 100 99 96 100 100 100 100 100 100 100 100 100 100 100 100 100 100 100 100 100
43 90 94 97 64 5 1 5 5 0 4 0 5 3 0 4 5 3 0 0 0 0 1 86 27 53 98 99 99 80 100 100 100 100 100 96 5 5 25 92 88 83 97 100
98 100 79 100 88 5 5 5 5 4 4 5 5 5 5 0 5 5 6 1 2 0 0 0 9 12 18 30 100 100 100 100 86 100 100 100 83 53 61 24 17 54 68 91
80 87 26 100 99 22 5 5 5 5 5 6 5 5 5 0 4 5 25 14 5 3 4 0 0 0 0 0 4 5 41 79 100 98 80 11 23 44 63 60 19 56 98 70
63 31 19 55 74 89 5 5 5 5 5 5 5 5 5 4 0 5 5 14 17 5 5 5 5 0 0 0 0 0 0 1 20 88 100 100 100 100 94 100 96 94 98 31
96 100 27 53 79 34 26 5 5 5 9 17 7 5 5 5 2 5 30 11 5 5 5 5 5 5 2 0 0 0 0 0 0 0 3 5 22 33 8 5 8 5 4 1
100 100 93 56 88 98 79 9 5 5 6 5 36 7 5 5 5 5 40 100 78 7 5 5 5 5 5 4 0 0 0 0 4 4 1 0 0 1 0 0 0 0 0 0
100 97 100 100 96 100 100 93 99 5 5 5 14 5 5 11 5 16 5 29 100 100 57 5 5 5 5 7 4 0 0 0 0 2 4 0 0 0 0 0 0 0 0 4
100 100 100 100 100 80 100 100 100 6 2 6 65 9 8 57 36 74 33 5 67 59 49 100 16 5 12 88 5 0 0 0 0 0 5 5 5 5 5 4 0 0 5 5
100 100 100 100 100 98 100 100 90 11 5 5 63 28 6 47 53 83 68 73 75 100 66 100 100 11 59 100 45 5 0 0 0 0 4 5 5 5 5 5 5 1 5 5
100 100 58 100 47 94 98 100 99 7 5 9 84 62 67 10 5 64 100 98 100 99 98 98 100 95 100 100 99 31 4 0 0 0 5 5 5 5 5 5 5 5 5 5

GFSCGP_prec_cloud_120.txt.gz
Cloud_Cover
0 0 0 0 0 0 0 0 5 3 0 0 5 44 5 59 5 5 5 2 5 5 5 46 2 0 0 53 69 28 56 100 100 100 100 61 98 100 100 100 100 100 100 100
0 0 0 0 0 0 0 0 0 0 5 4 4 87 79 27 5 3 1 5 5 5 4 5 4 0 0 38 87 35 5 100 100 100 100 100 100 100 100 100 77 100 100 100
0 0 0 0 0 0 0 0 0 0 0 23 33 75 96 59 68 1 1 68 6 5 5 27 0 15 0 0 25 22 1 44 100 100 100 100 100 100 100 100 100 100 100 100
0 0 0 0 0 0 0 0 0 0 0 31 42 26 75 48 5 5 35 15 26 4 5 8 2 33 0 0 23 1 7 100 100 100 100 100 100 100 100 100 100 100 100 100
0 0 0 0 0 0 0 0 0 0 5 64 5 4 90 6 5 64 100 100 100 100 99 15 5 5 0 21 44 20 64 100 100 100 100 100 100 100 100 100 100 100 100 100
0 0 0 0 0 0 0 0 0 0 2 59 0 5 5 5 46 16 42 100 100 100 100 93 7 3 72 1 29 74 100 100 100 100 100 100 100 100 100 100 100 100 100 100
0 0 0 0 0 0 0 0 3 2 0 36 0 3 5 5 17 73 100 100 100 100 100 100 8 25 0 0 2 100 100 100 100 100 100 100 100 100 100 100 100 100 100 100
4 1 0 0 0 0 0 0 0 30 5 1 0 0 5 4 67 62 60 100 100 100 100 100 100 94 91 99 100 100 100 100 100 100 100 100 100 100 100 100 100 100 100 100
5 0 0 0 1 0 0 0 0 12 3 12 31 1 0 3 1 95 60 100 100 100 100 100 100 100 100 100 100 100 100 100 100 100 100 100 100 100 100 100 100 100 100 100
67 3 5 5 4 0 0 0 0 2 22 3 93 4 0 0 3 5 100 95 100 100 100 100 100 100 100 100 100 100 100 100 100 100 100 100 100 100 100 100 100 100 100 100
100 34 5 5 5 0 0 0 0 0 3 3 2 6 0 0 5 5 7 97 100 100 100 100 100 100 100 100 100 100 100 100 100 100 100 100 100 100 100 100 100 100 100 100
100 100 5 5 5 2 5 1 0 0 0 0 0 4 0 0 0 5 99 100 59 100 100 100 100 100 100 100 100 100 100 100 100 100 100 100 100 100 100 100 100 100 100 100
100 63 9 5 5 5 1 5 0 0 0 0 0 0 0 0 0 0 2 97 100 89 100 100 100 100 100 100 100 100 100 100 100 100 100 100 100 100 100 100 100 100 100 100
100 81 11 79 100 5 0 5 5 0 0 0 0 0 0 0 0 0 0 1 100 100 100 100 100 100 100 100 100 100 100 100 98 100 99 100 100 100 100 100 100 100 100 100
100 97 59 66 42 18 4 4 5 4 0 0 0 0 0 0 0 0 0 0 12 7 76 100 99 100 100 93 77 5 25 8 29 49 32 100 100 88 100 100 100 100 97 92
100 85 5 14 100 22 5 5 6 14 2 3 4 0 0 0 0 0 0 0 0 0 0 0 0 0 0 0 33 76 24 3 5 5 78 11 36 5 5 83 100 97 95 89
100 100 30 15 18 91 13 5 5 5 5 5 4 0 0 4 5 1 0 0 0 0 0 0 0 0 0 0 0 27 15 5 5 5 4 4 5 5 55 37 32 100 100 100
97 100 29 5 13 64 60 5 10 7 5 5 1 3 2 4 5 5 1 0 0 4 0 0 0 0 0 0 0 0 6 85 92 34 1 4 5 4 5 5 4 59 99 100
85 62 28 18 8 28 5 5 13 12 5 5 5 5 5 5 5 5 5 2 0 0 4 4 0 0 0 0 0 0 0 0 0 9 22 5 4 2 5 5 40 16 2 11
100 100 100 35 10 10 19 8 5 5 5 5 5 9 100 5 5 5 2 5 5 5 0 4 5 5 1 0 0 0 0 0 0 0 0 0 0 2 4 5 4 2 4 5
99 83 100 5 25 21 13 42 5 5 5 5 84 100 35 55 5 3 5 5 5 5 5 5 0 5 5 4 0 2 5 0 0 0 0 0 0 0 0 0 0 0 1 5
100 100 84 7 34 67 20 44 8 5 5 5 81 100 81 65 5 5 5 5 6 6 6 13 5 5 4 5 5 5 5 5 4 0 0 0 0 0 0 0 0 5 15 5
20 6 6 74 100 100 100 18 5 6 16 6 85 97 100 68 5 5 29 5 73 71 23 5 5 5 5 5 5 5 42 5 5 14 5 1 0 0 0 0 0 5 19 39
96 5 6 100 39 100 68 92 31 30 6 5 46 5 5 91 100 60 56 36 85 100 84 49 5 5 6 52 84 85 69 12 79 65 5 5 5 5 4 1 0 0 14 57
100 70 98 38 28 47 100 99 100 82 100 84 14 4 5 100 100 100 73 69 88 100 97 92 27 5 52 98 93 100 98 81 99 100 53 20 6 5 6 9 20 2 5 8
100 100 100 96 5 16 71 31 41 95 100 100 100 6 14 46 71 93 100 100 100 100 100 78 15 12 97 90 98 100 100 100 100 100 94 37 38 6 36 53 73 51 5 49

GFSCGP_prec_cloud_123.txt.gz
Cloud_Cover
0 0 0 0 0 0 0 0 0 0 0 0 0 5 5 5 5 5 5 0 0 0 0 0 0 0 0 0 21 100 12 100 100 100 100 100 100 100 99 100 100 100 100 100
0 0 0 0 0 0 0 0 0 0 0 0 4 5 5 4 64 6 2 0 0 0 0 3 0 0 0 0 0 74 16 32 99 100 100 100 100 100 100 93 100 100 100 100
0 0 0 0 0 0 0 0 0 0 0 0 12 5 4 5 18 35 5 4 5 0 0 1 1 4 0 0 0 2 41 47 80 100 100 100 100 100 100 100 100 100 100 87
0 0 0 0 0 0 0 0 0 0 0 1 5 0 0 4 44 44 72 90 97 52 1 0 6 50 0 0 4 7 40 17 50 100 100 100 100 100 100 100 100 100 80 100
3 2 0 0 0 0 0 0 0 0 2 4 0 0 0 0 10 78 98 100 100 100 98 0 4 96 5 0 11 7 0 18 54 100 100 100 100 100 100 100 100 100 100 100
5 5 0 0 0 0 0 0 0 0 1 5 2 0 0 2 4 63 100 100 100 100 100 91 10 57 6 72 66 53 20 19 5 100 100 100 100 100 100 100 100 100 100 100
63 24 4 0 0 0 0 0 3 0 0 2 0 0 3 0 3 33 100 100 100 100 100 100 58 16 87 53 100 66 40 63 47 100 100 100 100 100 100 100 100 100 100 100
100 89 6 0 0 0 0 0 3 0 13 0 0 0 0 0 0 29 100 100 100 100 100 100 100 99 100 76 94 99 90 68 46 100 100 100 100 100 100 100 100 100 100 100
68 100 83 0 0 0 0 0 0 0 0 3 5 2 0 1 5 5 75 100 100 100 100 100 100 100 100 100 100 100 100 100 100 100 100 100 100 100 100 100 100 100 100 100
92 73 100 58 0 0 4 0 0 0 1 0 5 0 0 0 5 5 33 100 100 100 100 100 100 100 100 100 100 100 100 100 100 100 100 100 100 100 100 100 100 100 100 100
100 82 97 100 1 4 5 4 0 2 1 0 0 0 0 0 2 2 54 100 100 100 100 100 100 100 100 100 100 100 100 100 100 100 100 100 100 100 100 100 100 100 100 100
100 100 98 54 4 4 1 5 0 5 5 1 0 0 0 0 0 0 9 28 96 100 100 100 100 100 100 100 100 100 100 100 100 100 100 100 100 100 100 100 100 100 100 100
100 100 100 98 5 5 14 5 5 5 5 4 2 0 0 0 0 0 0 3 53 100 100 100 100 100 100 100 100 100 98 98 100 100 100 100 100 100 100 100 100 100 100 100
100 100 100 100 7 5 28 6 5 5 5 1 0 0 0 0 0 0 0 1 80 89 99 100 100 100 100 100 100 100 100 100 100 100 100 100 100 100 100 100 100 100 100 100
88 100 100 100 56 52 71 5 5 5 5 5 0 2 0 0 0 0 0 0 0 6 92 99 91 100 86 16 38 97 100 100 100 100 100 100 100 100 100 100 100 100 97 99
91 100 100 100 97 10 59 25 5 5 5 5 5 0 0 0 0 0 0 0 0 0 0 0 0 0 55 12 0 0 0 28 100 100 100 100 100 100 100 100 100 100 100 100
100 100 100 100 99 44 38 60 5 5 5 5 5 5 1 0 0 0 0 0 0 0 0 0 0 0 0 0 0 0 0 0 0 1 59 99 100 100 100 100 100 100 100 100
100 100 100 100 45 8 66 47 5 5 5 5 5 5 5 5 4 5 5 0 0 0 0 0 0 0 0 0 0 0 0 0 0 0 0 0 0 1 4 64 100 100 84 19
100 100 100 100 91 80 53 77 6 5 5 5 5 5 5 18 11 5 5 5 4 2 0 0 0 0 0 0 0 0 0 0 0 0 0 0 0 0 0 0 0 0 0 0
99 100 100 100 100 100 100 72 34 18 9 5 5 5 6 77 100 100 33 5 5 5 2 0 0 0 0 0 0 0 0 0 0 0 0 0 0 0 0 0 0 0 0 0
100 100 100 100 100 100 44 100 100 86 82 39 5 5 16 4 87 100 100 85 5 5 5 5 5 1 0 0 0 0 0 0 0 0 0 0 0 0 0 0 0 0 0 0
100 100 100 100 100 100 81 66 93 96 99 37 5 5 5 2 5 91 100 93 91 38 8 5 5 5 4 4 0 0 0 0 0 0 0 0 0 0 0 0 0 0 0 0
100 100 100 100 100 100 45 98 100 100 99 94 40 6 5 5 3 13 100 87 90 93 86 74 60 6 6 5 5 5 4 2 5 5 4 4 0 0 0 0 0 0 0 0
100 100 100 100 99 66 78 87 81 100 85 100 99 28 5 5 5 5 98 51 100 100 99 100 100 63 69 40 5 62 5 5 5 5 5 5 5 5 0 0 2 1 0 0
100 47 85 64 100 99 9 86 100 94 71 27 100 100 61 5 5 5 26 4 88 91 96 82 100 100 99 100 70 100 30 14 62 24 5 5 5 5 5 5 5 5 5 2
100 100 19 31 14 6 98 74 91 100 84 50 100 100 100 91 5 5 5 5 14 45 5 5 82 100 100 100 100 99 98 85 90 65 49 27 49 5 5 8 7 5 7 5

GFSCGP_prec_cloud_126.txt.gz
Cloud_Cover
0 0 0 0 0 0 0 0 0 0 0 0 0 0 0 0 0 3 0 0 0 0 0 100 19 97 100 100 100 100 100 100 100 100 100 100 100 100 100 100 72 100 100 100
0 0 0 0 0 0 0 0 0 0 0 0 0 0 0 0 5 5 8 2 10 3 0 0 5 22 74 100 100 100 100 100 100 100 100 100 100 100 100 100 100 100 100 100
0 0 0 0 0 0 0 0 0 0 0 0 0 0 0 0 5 3 6 100 92 61 2 0 0 20 4 100 98 100 100 100 100 100 100 100 100 100 100 100 100 100 100 100
0 0 4 0 0 0 0 0 0 0 0 0 0 1 0 0 0 4 44 100 100 100 95 24 0 4 4 87 100 100 100 100 100 100 100 100 100 100 100 100 100 100 100 100
0 0 2 4 0 0 0 0 0 0 0 1 0 0 0 0 1 22 99 100 100 100 100 89 0 3 5 4 99 100 100 100 100 100 100 100 100 100 100 100 100 100 100 100
0 5 6 1 0 0 0 0 0 4 0 4 0 0 0 0 2 32 60 100 100 100 100 100 27 5 62 76 94 100 100 100 100 100 100 100 100 100 100 100 100 100 100 100
3 5 5 1 5 0 0 0 3 5 5 0 0 0 0 0 5 63 100 100 100 100 100 100 100 100 100 100 100 98 90 100 100 100 100 100 100 100 100 100 100 100 100 100
71 85 5 5 25 1 0 0 4 5 5 4 0 0 0 0 5 60 83 100 100 80 92 100 100 100 100 100 100 100 100 100 94 100 100 100 100 100 100 100 100 100 100 100
5 91 76 5 14 5 4 0 5 6 5 6 2 0 0 0 0 32 87 100 100 100 100 100 100 100 100 100 100 100 100 100 100 100 100 100 81 100 100 100 100 100 100 100
5 59 100 82 7 5 0 5 5 72 5 5 5 0 0 0 0 15 82 99 98 100 100 100 100 100 100 100 100 100 100 100 100 100 100 96 100 100 100 100 100 100 100 100
5 19 99 99 9 17 6 5 18 7 14 5 5 1 0 0 0 14 69 94 90 100 100 100 100 100 100 100 100 100 100 92 100 100 100 100 100 100 100 100 100 100 100 100
5 56 67 100 100 100 68 5 28 5 5 5 5 5 0 0 0 0 0 35 76 93 100 100 100 100 100 100 100 100 100 100 100 100 100 100 100 100 100 100 100 100 100 100
2 31 72 56 100 100 100 27 6 8 5 5 5 5 3 0 0 0 0 43 85 99 100 100 100 100 100 100 100 100 72 96 98 96 100 100 100 100 100 100 100 100 100 100
5 5 6 5 39 100 100 100 20 16 5 5 5 5 5 1 0 0 0 1 95 99 100 100 100 100 100 99 82 100 58 67 56 91 100 100 100 100 100 100 100 100 100 100
1 4 5 24 7 22 100 100 76 55 5 5 5 5 0 0 0 0 0 0 24 70 38 39 82 83 98 78 39 84 95 18 19 30 72 100 100 100 100 100 100 100 100 100
0 5 5 48 9 43 5 98 99 36 21 5 5 5 5 2 0 4 0 0 0 0 70 0 39 0 16 16 0 0 2 28 3 13 98 100 100 100 100 100 100 100 100 100
5 5 8 86 44 66 98 100 100 92 52 6 5 5 5 5 5 5 7 5 1 0 0 0 0 0 0 0 0 0 0 0 4 3 72 100 83 100 100 100 100 100 100 100
23 23 23 100 100 100 100 100 79 100 22 6 27 5 5 5 4 5 36 5 5 4 0 0 0 0 0 0 0 2 4 4 8 100 84 100 100 100 100 100 100 100 100 100
99 43 69 100 100 100 100 86 95 100 6 5 18 11 34 5 5 5 5 5 5 5 5 5 3 1 0 0 0 0 1 5 5 5 15 100 100 100 100 100 100 100 100 100
100 100 100 100 100 100 19 74 100 100 100 99 100 40 6 5 5 4 4 5 5 12 5 5 5 5 5 5 0 0 0 0 0 4 5 8 10 5 4 45 91 95 97 96
87 100 100 100 100 99 96 100 100 85 72 95 99 94 51 52 5 5 4 5 5 5 7 45 5 5 5 5 5 5 0 3 0 0 0 0 3 4 4 5 0 0 0 0
94 100 100 100 91 100 7 100 100 8 41 93 100 100 51 20 5 5 5 5 5 5 5 65 66 6 5 5 5 5 5 4 5 4 1 3 4 0 0 0 0 0 0 0
40 100 100 100 100 90 100 100 100 100 100 70 100 61 34 13 5 5 5 5 5 0 4 65 41 6 16 5 5 5 5 5 5 61 6 5 5 5 5 0 0 0 0 0
100 100 100 100 100 100 100 100 100 100 80 100 100 50 90 5 4 0 5 45 5 1 1 5 26 5 5 8 23 79 97 93 9 82 83 47 7 5 5 5 5 5 5 5
100 100 100 100 100 66 95 100 96 100 100 59 46 100 100 30 5 2 5 5 5 11 5 5 5 5 5 24 21 65 91 100 99 100 98 86 87 54 38 5 5 5 5 5
100 100 100 100 100 100 100 100 100 100 26 46 100 100 100 100 99 49 5 5 5 36 5 5 5 5 5 53 100 94 51 100 100 100 100 100 84 98 75 51 47 54 5 12

GFSCGP_prec_cloud_132.txt.gz
Cloud_Cover
0 0 0 0 0 0 0 0 0 0 0 0 0 0 0 0 0 0 0 0 9 5 4 3 2 0 5 21 66 87 54 77 100 100 100 100 100 100 100 100 100 100 100 100
0 0 0 0 0 0 0 4 0 0 0 0 0 0 0 0 0 1 5 3 26 40 0 1 5 0 0 80 100 100 85 55 100 100 100 100 100 100 100 100 100 100 100 100
0 0 0 0 0 0 0 1 2 0 3 3 0 0 0 0 0 3 5 93 97 97 95 63 13 0 0 68 100 100 84 99 100 100 100 100 100 100 100 100 100 100 100 100
0 0 0 0 0 0 0 4 2 2 4 10 5 0 0 0 0 3 8 100 61 98 100 79 45 3 1 78 100 100 100 100 100 100 100 100 100 100 100 100 100 100 100 100
0 0 0 0 1 0 0 0 4 5 5 5 5 2 0 0 0 0 40 46 92 100 100 100 83 46 69 100 100 100 100 100 100 100 100 100 100 100 100 100 100 100 100 100
0 0 0 0 4 4 4 2 12 39 5 27 5 0 0 0 0 79 89 82 100 100 100 100 98 100 100 100 100 98 100 100 100 100 100 100 100 100 100 100 100 100 100 100
0 0 0 0 0 0 5 6 59 40 5 69 5 4 0 0 0 20 100 100 100 100 98 100 100 100 100 100 90 100 100 100 100 100 100 100 100 100 100 100 100 100 100 100
0 0 0 0 4 5 5 14 47 94 16 85 65 5 0 0 0 0 50 100 100 79 100 100 100 100 100 100 99 83 100 100 100 100 100 100 100 100 100 100 100 100 100 100
0 0 0 0 0 4 9 27 40 63 10 55 68 5 5 0 0 0 15 100 100 100 100 100 100 100 100 100 100 100 100 100 100 100 100 100 100 100 100 100 100 100 100 100
0 0 0 0 0 3 71 5 13 43 91 17 52 6 5 3 0 0 6 97 100 100 100 100 100 100 100 100 100 100 100 100 100 100 100 100 100 100 100 100 100 100 100 100
0 0 0 0 0 0 1 5 6 56 100 80 14 19 5 5 4 0 0 26 100 100 100 100 100 100 100 100 100 100 100 100 100 100 99 100 100 100 100 100 100 100 100 100
0 0 0 0 0 0 0 0 7 80 100 100 10 62 41 5 10 3 0 33 100 100 100 100 100 100 100 100 100 100 100 100 100 100 100 100 100 100 100 100 100 100 100 100
0 0 0 0 0 0 0 0 5 5 16 95 75 48 5 5 5 5 0 87 100 100 100 100 100 100 100 100 100 100 100 100 100 100 100 100 100 100 100 100 100 100 100 100
0 0 0 0 0 0 0 0 5 5 38 69 74 38 5 5 5 4 5 20 100 100 100 100 100 100 100 95 99 100 100 100 59 65 92 100 100 100 100 100 100 100 100 100
2 0 0 0 0 0 0 0 5 12 18 41 69 66 5 5 4 5 0 0 87 100 100 100 97 100 100 100 97 48 59 96 65 8 2 60 98 100 100 100 100 100 100 100
100 17 0 0 0 0 0 0 5 30 5 12 71 62 23 5 5 2 0 0 0 41 100 100 100 100 100 100 100 85 0 2 0 0 0 0 2 26 89 100 100 100 100 100
100 100 78 0 0 0 0 0 5 5 6 5 5 97 66 5 5 2 3 0 0 0 6 86 100 100 100 99 91 0 0 0 0 0 0 0 0 0 0 0 1 5 35 62
15 27 96 100 18 0 45 0 5 5 5 5 5 5 8 5 5 4 3 0 0 0 0 0 10 30 80 52 5 0 0 0 0 0 0 0 0 0 0 0 0 4 6 5
51 84 5 14 37 34 53 21 28 5 5 4 0 5 5 5 8 13 3 0 0 0 0 0 0 0 0 4 5 1 0 0 0 0 2 0 0 0 0 0 0 0 5 33
47 100 12 5 52 86 100 100 100 100 100 100 63 5 5 9 19 8 5 5 4 0 0 0 0 0 0 1 2 4 0 0 0 0 0 2 5 5 2 4 5 2 0 0
96 84 84 28 10 99 100 100 100 100 100 100 100 69 5 22 88 33 65 35 5 0 0 0 0 0 0 0 0 0 0 0 0 2 0 0 0 2 5 5 14 23 5 5
22 100 100 100 100 100 100 100 100 100 100 100 99 6 5 74 67 25 36 34 17 0 0 0 0 2 5 3 4 0 0 0 0 5 5 5 5 5 5 5 8 29 29 7
12 41 100 100 100 100 100 100 100 100 100 100 91 5 5 10 100 100 57 75 18 5 0 5 5 4 5 5 2 0 5 0 2 5 5 5 5 5 5 5 5 5 5 5
100 61 9 100 100 100 100 68 78 100 100 100 76 96 56 6 100 66 5 46 14 5 0 5 5 5 5 5 0 5 5 5 5 5 22 7 5 5 7 5 5 5 5 5
100 100 95 95 100 100 100 100 100 100 100 82 68 100 99 40 100 49 13 35 48 3 5 5 5 5 5 4 0 5 5 20 5 5 82 75 5 5 51 31 64 45 26 7
20 100 99 98 100 100 100 100 100 100 100 68 100 100 100 99 100 73 15 76 12 5 5 5 5 5 5 5 1 4 5 5 5 7 46 76 14 5 53 38 16 50 93 74

GFSCGP_prec_cloud_138.txt.gz
Cloud_Cover
22 94 37 0 0 0 0 0 0 0 0 0 0 1 4 0 0 0 0 0 0 0 2 55 47 32 74 100 100 100 0 0 94 100 84 25 66 50 100 100 100 100 100 100
56 77 6 0 0 0 0 0 0 0 0 0 0 5 0 0 0 0 0 0 0 2 9 82 100 54 92 100 100 100 48 27 100 100 50 53 75 83 94 100 100 100 100 100
6 6 0 0 0 0 0 0 0 0 0 0 0 5 0 0 0 0 0 0 20 33 70 100 57 62 68 82 95 100 86 100 100 100 68 71 100 100 100 100 100 100 100 100
2 3 0 0 0 0 0 0 0 0 0 1 0 5 0 0 0 0 0 2 35 97 100 100 100 100 100 100 100 100 100 96 85 100 94 79 94 100 100 100 100 100 100 100
3 3 0 0 0 0 0 0 0 0 0 0 3 0 0 2 0 0 0 11 53 94 100 100 100 100 100 100 100 100 100 100 97 100 100 100 100 100 100 100 100 100 100 100
77 0 0 0 0 0 0 0 0 0 3 0 3 0 0 0 0 0 0 6 50 100 100 100 100 100 100 100 100 100 100 100 100 100 100 100 100 100 100 100 100 100 100 100
5 28 0 0 0 0 0 0 0 0 5 4 2 0 5 3 0 0 0 7 60 64 100 100 100 100 100 100 100 100 100 100 100 100 100 100 100 100 100 100 100 100 100 100
5 5 4 0 0 0 0 0 0 71 0 5 0 0 5 5 0 0 0 11 78 99 100 100 100 100 97 100 100 100 100 100 100 100 100 100 100 100 100 100 100 100 100 100
5 5 36 5 0 0 0 0 0 0 0 0 0 0 4 5 0 0 0 16 51 100 78 99 100 100 100 100 100 100 100 100 100 100 100 100 100 100 100 100 100 100 100 100
70 5 5 18 4 0 0 0 0 0 15 0 0 0 0 5 2 0 0 3 25 79 78 68 100 100 100 100 100 100 100 100 100 100 100 100 100 100 100 100 100 100 100 100
100 5 7 8 66 1 0 0 0 0 0 0 0 0 0 4 2 0 0 0 8 9 88 100 100 100 100 100 100 100 100 100 100 100 100 100 100 100 100 100 100 100 100 100
100 97 6 5 30 61 0 0 0 0 0 0 0 0 0 0 4 0 0 0 0 12 87 97 100 100 100 100 100 100 100 100 100 100 96 100 100 100 100 100 100 100 100 100
100 100 92 74 56 100 6 0 0 0 0 0 0 0 0 0 0 0 0 0 1 41 94 100 100 100 100 100 100 100 100 100 100 100 100 100 100 100 100 100 100 100 100 100
100 83 100 100 100 32 5 0 0 0 0 0 0 0 0 5 0 0 0 0 0 25 72 100 100 100 100 100 100 100 100 100 100 100 100 100 98 100 100 100 100 100 100 100
100 100 100 100 100 82 5 1 0 0 0 0 0 0 0 1 0 0 0 0 0 0 70 100 100 100 100 100 100 100 100 100 100 100 77 60 51 72 100 100 100 100 100 100
100 100 100 100 100 100 5 5 0 0 0 0 0 0 0 0 0 0 0 0 0 0 12 62 76 95 43 86 100 100 100 100 100 100 100 100 100 100 100 100 100 100 100 100
100 100 100 100 100 100 41 64 2 0 0 0 0 0 0 0 0 0 0 0 0 0 0 0 7 0 0 0 6 81 88 39 28 76 96 88 76 64 63 85 81 99 100 100
100 100 100 100 100 100 100 5 5 0 0 0 0 0 0 0 0 0 0 0 0 0 0 0 0 8 7 0 16 0 0 0 0 0 0 0 0 0 0 0 0 0 0 44
100 100 100 100 100 100 100 49 5 5 0 0 0 0 0 0 0 0 0 0 0 0 0 0 0 13 42 68 0 0 0 0 0 0 0 0 0 0 0 0 0 0 0 0
100 100 100 100 100 100 100 100 6 5 5 3 0 0 0 0 0 0 0 0 0 0 0 0 0 9 55 90 5 0 0 0 5 4 0 0 0 0 0 0 0 0 0 0
100 100 92 82 82 92 100 100 99 5 32 5 0 0 0 0 34 6 6 4 2 0 0 2 0 1 0 4 1 0 0 0 0 0 5 5 2 1 1 2 5 5 5 5
100 100 47 51 69 100 100 100 100 100 82 5 4 3 83 100 100 100 97 6 3 5 1 16 6 5 5 5 0 0 0 0 0 0 0 5 5 5 8 40 48 5 5 5
100 69 65 5 98 100 100 100 100 100 100 97 93 100 100 100 100 100 6 5 5 5 5 29 86 59 100 44 4 0 4 5 2 0 0 0 0 3 8 62 99 71 5 5
100 95 54 69 83 100 100 100 100 100 100 100 100 100 100 100 100 100 43 29 96 5 4 5 64 100 100 84 4 0 0 5 5 5 2 5 5 5 5 5 5 12 6 76
100 99 9 40 100 100 100 100 100 100 100 100 100 100 100 100 100 100 99 100 100 9 3 23 100 100 100 74 5 5 0 5 5 5 4 1 5 25 82 98 78 73 50 68
100 69 48 39 100 100 100 100 100 100 100 100 100 100 100 100 100 100 100 100 100 5 5 56 100 100 100 17 5 3 0 5 5 5 5 2 5 5 28 70 10 13 73 100

GFSCGP_prec_cloud_141.txt.gz
Cloud_Cover
0 0 4 5 7 8 85 0 0 0 0 0 0 0 0 0 0 0 0 0 0 0 0 0 4 1 8 23 75 100 58 5 1 16 100 100 86 40 42 27 97 100 100 100
0 4 2 22 5 5 5 0 0 0 0 0 0 0 0 0 0 0 0 0 0 0 2 63 91 100 48 9 46 100 99 48 22 28 100 100 100 24 52 100 100 100 100 100
5 0 5 5 5 5 0 0 0 0 0 0 0 0 0 0 0 0 0 0 0 1 93 94 100 83 92 56 79 100 100 87 74 16 96 90 98 76 100 100 100 100 100 100
72 5 3 5 10 4 0 0 0 0 0 0 0 0 0 0 0 0 0 0 9 74 100 100 100 100 100 100 100 100 100 100 75 99 100 91 37 64 100 99 100 100 100 100
100 22 5 5 5 4 0 0 0 0 0 0 0 0 0 0 0 0 4 0 20 57 100 100 100 100 100 100 100 100 100 100 100 100 100 76 90 69 100 100 100 100 100 100
100 100 4 5 5 5 0 0 0 0 0 0 0 0 0 0 0 0 5 1 3 36 100 100 100 100 100 100 100 99 100 100 73 54 74 97 100 100 100 100 100 100 100 100
90 100 81 93 6 5 0 0 0 0 4 0 0 0 0 0 0 0 5 2 2 37 100 95 100 100 100 100 100 100 100 100 100 100 100 100 100 100 100 100 100 100 100 100
100 100 100 100 18 5 5 0 0 71 0 0 0 0 0 0 0 0 5 0 3 98 100 100 100 100 100 100 100 100 100 100 100 100 100 100 100 100 100 100 100 100 100 100
100 100 95 100 50 5 46 2 0 0 0 0 0 0 0 0 0 0 0 4 11 94 100 100 80 99 100 100 100 100 100 100 100 100 100 100 100 100 100 100 100 100 100 100
100 99 99 100 100 100 10 37 0 0 6 0 0 0 0 0 0 0 0 5 18 100 100 73 100 96 100 100 100 100 100 100 100 100 100 100 100 100 100 100 100 100 100 100
100 98 86 100 100 100 98 42 15 0 0 0 0 0 0 0 0 0 0 0 4 63 98 100 100 99 100 100 100 100 100 100 100 100 100 100 100 100 100 100 100 100 100 100
100 100 43 100 100 100 100 8 95 0 0 0 0 0 0 0 0 0 0 0 1 46 47 100 100 100 100 100 95 99 100 100 100 100 100 100 100 100 100 100 100 100 100 100
100 100 69 23 78 80 100 100 100 20 0 0 0 0 0 0 0 0 0 0 1 23 61 99 100 100 100 100 99 100 96 100 100 100 90 100 100 100 100 100 100 100 100 100
100 100 100 6 100 100 100 100 100 100 4 0 0 0 0 0 0 0 0 0 0 18 12 73 100 100 100 100 90 100 100 100 100 100 100 100 100 100 100 100 100 100 100 100
100 100 100 100 100 83 99 100 10 100 14 0 0 0 0 0 0 0 0 0 0 19 25 42 100 100 100 100 100 100 100 100 100 100 100 99 56 72 67 69 100 100 100 100
100 100 100 100 100 57 100 100 100 100 54 4 0 0 0 0 0 0 0 0 0 1 35 82 99 100 100 100 100 100 100 100 100 100 80 98 100 100 100 100 100 100 100 100
100 100 100 100 100 100 92 100 100 100 100 4 3 0 0 0 0 0 0 0 0 0 17 30 79 73 42 96 100 100 100 100 100 100 100 100 100 97 92 82 99 100 100 100
100 100 100 100 100 83 96 100 100 100 100 70 2 0 0 0 0 0 0 0 0 0 0 20 14 21 40 52 44 84 98 89 76 71 36 4 0 0 0 0 47 100 87 100
100 100 100 100 100 98 87 100 100 100 100 100 3 0 0 0 0 0 0 0 0 0 0 0 0 3 0 0 7 1 0 0 0 0 0 0 0 0 0 0 0 0 0 0
97 100 100 100 100 79 99 100 100 100 100 100 38 5 0 0 0 0 0 0 0 0 0 0 0 0 0 0 0 0 0 0 0 0 0 0 0 0 0 0 0 0 0 0
100 100 100 100 100 85 100 100 100 100 100 100 100 7 0 0 0 0 0 0 0 0 0 0 0 0 0 0 0 0 0 0 0 0 0 0 0 0 0 0 0 0 0 0
100 100 100 99 97 73 37 100 100 100 100 100 100 55 5 2 0 0 0 0 1 5 0 0 0 0 0 5 0 7 5 0 0 0 0 0 0 0 0 0 0 1 5 5
87 100 97 97 97 99 99 100 100 100 100 100 100 99 5 5 0 0 0 94 100 75 0 3 2 0 1 10 5 5 5 0 0 0 0 0 0 0 0 0 4 19 93 95
63 63 100 100 100 92 100 100 100 100 100 100 100 100 5 5 2 0 32 100 100 8 43 32 5 0 0 5 5 5 5 0 0 0 0 0 0 1 5 5 5 5 5 5
98 100 100 99 100 99 100 100 100 100 100 100 100 100 98 5 5 2 100 100 91 18 100 24 5 5 8 29 5 5 5 1 0 0 0 0 0 0 0 1 4 5 5 5
84 100 100 86 100 100 100 100 100 100 100 100 100 100 100 7 5 72 100 100 100 5 100 83 8 92 100 91 47 32 5 0 0 0 0 0 0 0 0 0 0 3 5 5

GFSCGP_prec_cloud_144.txt.gz
Cloud_Cover
0 3 3 0 0 0 0 3 0 5 4 0 0 0 0 0 0 0 0 0 0 0 0 0 0 0 0 0 1 100 23 28 100 5 5 100 100 100 100 100 100 100 100 100
3 5 5 0 0 0 0 0 0 0 0 0 0 0 0 0 0 0 0 0 0 0 0 0 18 2 0 16 64 3 5 42 64 5 38 85 100 58 66 100 76 17 100 100
6 18 6 12 1 0 0 0 0 0 0 0 0 0 0 0 0 0 0 0 0 0 0 19 100 100 71 68 18 60 64 46 5 35 67 56 88 98 78 94 95 95 97 100
60 69 10 45 8 0 0 0 0 0 0 0 0 0 0 0 0 0 0 0 0 0 5 99 100 100 100 100 98 99 92 1 14 100 6 29 99 90 92 100 100 100 100 100
85 47 56 100 80 25 2 0 0 0 0 0 0 0 0 0 0 0 0 0 0 0 91 100 100 100 100 100 100 100 100 66 91 7 4 97 48 54 91 100 99 84 100 100
58 5 86 97 100 100 8 0 0 0 0 0 0 0 0 0 0 0 0 0 0 0 94 100 100 100 100 100 100 100 100 90 50 33 80 7 54 96 100 100 100 100 100 100
98 5 71 77 45 100 100 5 0 0 1 0 0 0 0 0 0 0 0 0 0 1 100 100 100 100 100 100 100 100 100 100 100 98 100 100 100 74 100 100 100 100 100 100
85 78 96 100 98 55 92 92 16 2 1 0 0 0 0 0 0 0 0 0 0 5 100 100 100 100 100 100 100 96 100 100 100 100 100 100 100 100 100 100 100 100 100 100
100 79 100 75 100 14 89 100 48 7 5 0 0 0 0 0 0 0 0 0 0 4 82 100 100 100 100 98 100 98 100 100 100 100 100 100 100 100 100 100 100 100 100 100
94 99 56 12 100 6 96 100 100 100 19 5 0 0 0 0 0 0 0 0 0 9 100 100 100 99 100 100 100 100 100 100 100 100 100 100 100 100 100 100 100 100 100 100
100 100 96 5 100 100 99 86 100 100 83 49 43 0 0 0 0 0 0 0 0 0 100 100 100 100 100 100 100 100 100 100 100 100 100 100 100 100 100 100 100 100 100 100
100 100 100 6 100 100 12 14 55 100 100 100 19 36 0 0 0 0 0 0 0 0 14 100 100 100 100 100 100 100 100 100 100 100 100 100 100 100 100 100 100 100 100 100
100 100 100 21 50 100 12 100 100 100 100 100 100 98 5 0 0 0 0 0 0 0 19 100 100 100 100 100 100 100 100 100 100 100 100 100 100 100 100 100 100 100 100 100
100 100 100 50 94 100 100 100 100 100 100 100 100 100 8 0 0 0 0 0 0 0 36 100 100 100 100 100 100 100 100 100 100 100 100 100 100 100 100 100 100 100 100 100
100 10 82 100 100 100 100 79 100 28 100 100 100 100 100 4 0 0 0 0 0 0 15 100 97 100 100 100 100 100 100 100 100 100 100 100 100 100 100 100 100 100 100 100
100 11 18 100 100 100 100 100 100 58 100 100 100 100 100 35 0 0 0 0 0 0 0 100 100 99 100 100 100 100 100 100 100 100 100 100 100 100 97 100 100 100 100 100
29 40 100 60 100 100 99 100 100 100 100 100 100 100 100 84 2 0 0 0 0 0 0 47 44 16 100 33 100 100 100 100 100 100 100 100 100 100 100 100 100 100 92 84
100 100 100 53 100 100 4 100 100 100 100 100 100 100 100 100 5 0 0 0 0 0 0 0 0 3 3 10 100 100 100 100 100 100 100 100 90 48 55 58 18 2 0 0
100 100 100 100 93 50 82 100 100 100 100 100 100 100 100 100 77 4 0 0 0 0 0 0 0 0 0 0 66 100 100 54 94 43 12 2 0 0 0 0 0 0 0 0
81 100 100 100 100 66 99 100 100 100 100 100 100 100 100 100 100 5 0 0 0 0 0 0 0 12 0 0 0 5 29 0 0 0 0 0 0 0 0 0 0 0 0 0
100 100 100 100 100 9 100 100 100 87 98 100 100 100 100 100 100 47 5 0 0 0 0 0 0 0 0 0 0 0 0 0 0 0 0 0 0 0 0 0 0 0 3 5
100 98 100 100 100 87 100 100 100 95 100 100 100 100 100 100 100 99 5 0 0 0 0 0 0 0 0 0 0 0 0 2 0 0 0 0 0 0 0 0 0 0 0 0
99 100 54 93 1 99 100 100 100 100 100 100 100 100 100 100 100 100 9 4 0 0 0 0 0 0 0 0 0 2 5 5 5 3 0 0 0 0 0 0 0 0 0 0
63 42 100 100 5 13 100 100 100 100 100 100 100 100 100 100 100 100 92 5 0 0 0 71 47 4 1 0 0 0 5 6 5 3 0 0 0 0 0 0 0 0 0 0
32 100 58 2 31 53 100 100 100 100 100 100 100 100 100 100 100 100 100 60 1 0 8 100 91 5 2 0 0 0 5 16 5 0 0 0 0 0 0 0 0 0 0 0
5 2 43 34 0 21 100 100 100 100 100 100 100 100 100 100 100 100 100 71 5 1 98 100 100 54 0 0 0 2 14 61 5 5 0 0 0 0 0 0 0 0 0 0

GFSCGP_prec_cloud_147.txt.gz
Cloud_Cover
100 65 4 4 0 0 0 0 0 0 1 5 3 5 0 0 0 0 0 0 0 0 0 0 0 0 0 0 0 0 0 0 3 68 17 5 84 87 38 75 100 100 100 99
100 100 10 5 0 4 0 1 0 0 0 2 5 4 0 0 0 0 0 0 0 0 0 0 0 0 0 0 0 0 0 0 0 4 7 90 25 97 76 48 100 100 100 100
98 100 67 5 5 5 7 1 0 0 0 0 0 4 0 0 0 0 0 0 0 0 0 0 0 0 31 30 14 1 0 0 0 3 5 100 96 34 32 35 100 100 100 100
100 98 100 68 5 5 47 5 4 0 0 0 0 4 0 0 0 0 0 0 0 0 0 0 48 89 100 100 92 56 12 0 82 100 100 84 100 25 74 41 100 100 100 100
100 100 100 100 67 9 92 5 5 1 5 0 0 2 0 0 0 0 0 0 0 0 0 24 100 89 100 100 100 100 71 1 13 9 19 5 5 7 17 62 99 100 100 100
100 100 100 99 53 52 48 5 25 11 1 4 0 0 0 0 0 0 0 0 0 0 0 98 100 85 98 100 74 99 94 58 25 15 0 2 87 76 86 97 100 100 100 100
89 98 100 100 96 72 14 5 4 37 5 5 0 0 0 0 0 0 0 0 0 0 10 100 100 100 99 100 97 90 100 100 100 90 98 100 51 100 100 100 100 100 100 100
66 60 100 100 100 98 10 5 7 4 96 53 3 0 0 0 0 0 0 0 0 0 71 100 100 100 99 100 100 100 98 100 100 100 100 100 98 96 98 100 100 100 100 100
95 26 99 96 100 100 21 60 58 18 49 73 68 4 1 0 0 0 0 0 0 0 74 100 100 100 100 100 100 100 100 100 100 100 100 100 100 100 100 100 100 100 100 100
100 50 33 5 33 91 88 15 71 66 17 100 100 5 5 2 0 0 0 0 0 0 71 100 100 100 100 88 100 100 100 100 100 100 100 100 100 100 100 100 100 100 100 100
100 100 100 80 5 92 100 8 72 44 76 11 100 100 100 5 3 0 0 0 0 0 10 100 100 100 100 79 100 100 100 100 100 100 100 100 100 100 100 100 100 100 100 100
100 91 100 100 93 100 100 5 5 5 100 100 98 100 100 89 5 0 0 0 0 0 100 100 100 100 100 100 100 100 100 100 100 100 100 100 100 100 100 100 100 100 100 100
96 6 9 6 43 100 68 30 99 100 100 100 100 100 100 100 100 6 0 0 0 0 30 100 100 100 100 100 100 100 100 100 100 100 100 100 100 100 100 100 100 100 98 100
100 13 58 5 4 99 100 100 100 100 99 100 100 100 100 100 100 69 4 0 0 0 8 100 100 100 100 100 100 100 100 100 100 100 100 100 100 100 100 100 100 100 100 100
90 100 78 5 73 20 100 100 100 95 30 80 100 100 100 100 100 100 5 0 1 8 8 100 100 100 100 100 100 100 100 100 99 100 100 100 100 100 100 100 100 100 100 100
100 100 100 7 6 96 95 100 100 5 17 100 100 100 92 100 100 100 86 5 0 14 2 100 100 100 100 100 100 100 100 97 76 88 96 100 100 100 100 100 100 100 100 100
98 100 100 96 82 27 84 74 100 72 6 100 100 100 100 100 100 100 100 29 1 0 0 94 100 100 100 100 100 100 100 100 100 100 100 100 95 99 100 100 97 95 92 100
24 100 100 100 100 100 2 79 100 100 37 100 100 100 100 100 100 100 100 100 4 0 0 4 96 99 100 100 100 100 100 100 100 100 100 100 100 100 100 92 57 23 0 1
3 34 10 100 64 41 5 1 89 100 100 100 100 100 100 100 100 100 100 100 45 0 0 0 0 0 2 63 100 100 100 100 100 100 100 100 99 67 2 0 0 0 0 0
6 13 100 100 100 81 0 0 8 100 98 100 100 100 100 100 100 100 100 100 94 5 0 0 0 0 0 21 100 100 100 100 100 100 87 30 0 0 0 0 0 0 0 0
59 100 100 64 100 25 0 2 3 86 98 100 100 100 100 100 100 98 100 100 100 70 5 0 0 0 0 0 60 95 93 87 54 5 5 0 0 0 0 0 0 0 0 0
46 100 100 99 96 72 26 100 36 67 100 100 100 100 100 100 100 95 100 100 100 98 27 0 0 0 0 0 12 30 2 0 0 5 6 5 0 0 0 0 0 0 0 0
5 66 92 100 12 0 100 100 46 100 100 100 100 100 100 100 100 100 100 100 100 100 62 18 0 0 0 0 0 0 0 0 0 5 5 5 0 0 0 0 0 0 0 0
7 100 100 100 16 2 100 100 100 100 100 100 100 100 100 100 100 100 100 100 100 100 43 50 0 0 0 2 2 0 0 0 0 4 4 5 1 0 0 0 0 0 0 0
66 68 29 100 64 95 100 100 100 100 100 100 100 100 100 100 100 100 100 100 100 100 93 7 1 0 6 7 5 5 0 0 0 5 5 5 5 0 0 0 0 0 0 0
100 10 30 2 49 98 100 100 100 100 100 100 100 100 100 100 100 100 100 100 100 100 100 17 4 0 99 26 5 0 0 5 11 5 5 4 3 0 0 0 0 0 0 0

GFSCGP_prec_cloud_150.txt.gz
Cloud_Cover
100 100 98 26 65 5 5 1 0 0 3 5 2 4 2 5 66 5 0 0 0 0 0 0 0 0 0 0 0 0 0 0 0 0 14 7 5 65 100 100 100 100 100 96
52 100 15 99 5 5 5 5 1 0 5 5 0 0 0 1 6 5 0 0 0 0 0 0 0 0 0 0 0 0 0 0 0 0 0 0 4 95 43 43 100 100 100 100
100 75 10 9 61 27 5 5 3 3 2 5 5 5 1 0 3 4 0 0 0 0 0 0 0 0 0 0 5 14 0 0 0 0 1 69 100 100 65 100 99 100 100 100
100 100 70 2 28 5 5 5 4 5 5 0 5 36 0 0 0 0 0 0 0 0 0 0 0 0 0 0 0 24 0 2 0 0 4 79 73 88 100 91 98 100 100 100
100 100 100 100 100 4 86 5 5 5 5 4 2 100 0 0 0 0 0 0 0 0 0 0 0 0 0 97 59 94 2 7 0 0 4 5 24 85 26 84 100 100 100 100
100 100 100 100 100 70 61 42 5 5 80 26 14 70 7 0 0 0 0 0 0 0 0 0 0 0 13 85 98 100 16 31 0 1 5 99 100 99 80 100 100 100 100 100
100 100 100 100 100 100 100 93 9 74 7 22 5 36 7 5 0 0 0 0 0 0 0 0 4 0 54 96 100 100 84 99 60 67 68 25 54 78 43 53 99 100 100 100
100 100 100 100 100 100 99 12 6 20 69 44 21 91 9 5 5 0 0 0 0 0 0 19 2 43 100 100 98 100 100 100 82 53 71 99 99 62 40 28 60 100 83 100
100 100 100 100 100 99 100 10 79 6 100 100 99 7 36 65 5 5 2 2 0 0 0 11 35 76 54 100 100 100 100 100 92 100 98 100 100 100 100 100 100 100 100 100
100 100 100 100 100 100 89 100 40 12 99 93 100 64 43 71 54 5 10 21 4 0 0 14 32 80 100 100 100 100 100 100 100 95 92 100 93 100 100 100 100 100 100 100
94 55 100 100 100 100 100 100 100 96 5 97 100 100 100 100 100 50 5 5 5 0 0 27 44 100 100 100 100 100 100 100 100 100 100 100 100 100 100 100 100 100 100 100
86 5 10 100 100 100 100 100 87 10 79 100 100 100 100 100 100 100 6 5 5 1 0 10 31 100 100 100 100 100 100 100 100 100 100 100 100 100 100 100 100 100 100 100
100 100 100 100 100 95 100 100 100 38 5 11 64 100 100 100 100 100 100 41 5 5 13 24 74 98 100 100 100 100 100 100 100 100 100 100 100 100 100 100 100 100 100 100
100 100 100 100 100 6 42 100 100 100 24 43 78 100 100 100 100 98 99 54 21 5 17 18 77 94 100 100 100 100 100 100 100 100 100 100 100 100 100 100 100 100 100 100
100 100 100 100 86 100 11 46 100 100 67 4 99 65 100 100 100 81 99 82 96 10 6 20 55 91 100 100 100 100 100 100 100 100 100 100 100 100 100 100 100 100 100 100
1 8 100 98 100 100 93 7 85 91 100 6 51 100 100 100 100 100 100 38 100 70 6 34 84 100 100 100 100 100 100 100 100 100 100 100 100 72 100 95 100 100 100 100
2 5 19 32 100 100 100 5 77 62 97 100 48 100 100 100 100 100 100 100 96 100 16 4 61 79 97 100 100 100 100 100 95 100 100 100 100 100 100 100 52 80 65 91
26 5 6 45 100 85 41 100 26 49 12 100 100 100 100 100 100 100 100 100 92 100 100 5 9 94 89 100 100 100 100 100 100 100 100 100 100 100 100 100 100 100 56 29
0 5 42 55 4 2 0 100 87 60 9 21 76 100 100 100 100 100 100 100 95 100 100 58 3 47 98 100 100 100 100 100 100 100 100 100 100 100 100 96 21 0 0 2
2 5 96 45 68 5 0 100 100 100 5 45 93 100 100 100 100 100 100 100 29 100 100 100 84 15 86 98 100 100 100 100 100 100 100 100 100 82 0 0 0 0 0 0
14 100 88 63 63 3 0 37 100 87 50 100 100 100 100 100 100 100 100 100 55 100 100 100 95 1 0 92 100 100 100 100 100 100 100 98 34 1 0 0 0 0 0 0
2 53 59 44 96 85 0 51 100 82 97 100 100 100 100 100 100 100 100 100 34 80 100 100 100 9 0 10 100 100 100 100 100 100 59 16 5 5 1 0 0 0 0 0
1 0 4 4 2 3 33 100 98 99 19 37 100 100 100 100 100 100 100 100 52 45 100 100 100 8 0 0 45 77 58 100 100 47 5 35 5 20 25 4 0 0 0 0
0 0 5 11 1 5 99 98 100 100 100 75 100 100 100 100 100 100 95 99 5 56 100 100 100 12 5 0 0 0 0 11 8 0 5 5 5 6 52 1 0 0 0 0
0 0 0 54 14 100 100 66 100 100 47 100 68 100 100 100 100 100 100 99 29 93 100 100 100 19 5 0 0 0 5 1 1 5 1 5 5 5 5 4 1 0 0 0
0 1 3 88 11 89 67 55 77 7 11 14 92 100 100 100 100 100 100 100 99 96 100 100 100 97 5 0 0 5 5 3 2 0 0 5 5 5 5 5 5 0 0 0